[[{"header":{"parameterUnit":"m.s-1","parameterCategory":1,"la1":30.6,"la2":29.2853,"lo1":-89.7004,"lo2":-87.6739,"dx":0.0162,"dy":0.0183,"nx":112,"ny":82,"refTime":"2022-11-13T18:00:00:Z","depth":0,"parameterNumber":2,"parameterNumberName":"U-component_of_WINDS"},"data":[0.0,0.0,0.0,0.0,0.0,0.0,0.0,0.0,0.0,0.0,0.0,0.0,0.0,0.0,0.0,0.0,0.0,0.0,0.0,0.0,0.0,0.0,0.0,0.0,0.0,0.0,0.0,0.0,0.0,0.0,0.0,0.0,0.0,0.0,0.0,0.0,0.0,0.0,0.0,0.0,0.0,0.0,0.0,0.0,0.0,0.0,0.0,0.0,0.0,0.0,0.0,0.0,0.0,0.0,0.0,0.0,0.0,0.0,0.0,0.0,0.0,0.0,0.0,0.0,0.0,0.0,0.0,0.0,0.0,0.0,0.0,0.0,0.0,0.0,0.0,0.0,0.0,0.0,0.0,0.0,0.0,0.0,0.0,0.0,0.0,0.0,0.0,0.0,0.0,0.0,5.8066,6.1909,6.5072,6.6589,6.5872,6.42,6.213,5.9651,0.0,0.0,0.0,0.0,0.0,0.0,0.0,0.0,0.0,0.0,0.0,0.0,0.0,0.0,0.0,0.0,0.0,0.0,0.0,0.0,0.0,0.0,0.0,0.0,0.0,0.0,0.0,0.0,0.0,0.0,0.0,0.0,0.0,0.0,0.0,0.0,0.0,0.0,0.0,0.0,0.0,0.0,0.0,0.0,0.0,0.0,0.0,0.0,0.0,0.0,0.0,0.0,0.0,0.0,0.0,0.0,0.0,0.0,0.0,0.0,0.0,0.0,0.0,0.0,0.0,0.0,0.0,0.0,0.0,0.0,0.0,0.0,0.0,0.0,0.0,0.0,0.0,0.0,0.0,0.0,0.0,0.0,0.0,0.0,0.0,0.0,0.0,0.0,0.0,0.0,0.0,0.0,0.0,0.0,0.0,0.0,0.0,0.0,0.0,0.0,0.0,0.0,0.0,0.0,5.8745,6.4414,6.6133,6.6835,6.6718,6.5111,6.3302,6.1412,0.0,0.0,0.0,0.0,0.0,0.0,0.0,0.0,0.0,0.0,0.0,0.0,0.0,0.0,0.0,0.0,0.0,0.0,0.0,0.0,0.0,0.0,0.0,0.0,0.0,0.0,0.0,0.0,0.0,0.0,0.0,0.0,0.0,0.0,0.0,0.0,0.0,0.0,0.0,0.0,0.0,0.0,0.0,0.0,0.0,0.0,0.0,0.0,0.0,0.0,0.0,0.0,0.0,0.0,0.0,0.0,0.0,0.0,0.0,0.0,0.0,0.0,0.0,0.0,0.0,0.0,0.0,0.0,0.0,0.0,0.0,0.0,0.0,0.0,0.0,0.0,0.0,0.0,0.0,0.0,0.0,0.0,0.0,0.0,0.0,0.0,0.0,0.0,0.0,0.0,0.0,0.0,0.0,0.0,0.0,0.0,0.0,0.0,0.0,0.0,0.0,0.0,0.0,5.9055,6.289,6.6601,6.7773,6.8125,6.7656,6.6015,6.4059,6.1829,5.6462,0.0,0.0,0.0,0.0,0.0,0.0,0.0,0.0,0.0,0.0,0.0,0.0,0.0,0.0,0.0,0.0,0.0,0.0,0.0,0.0,0.0,0.0,0.0,0.0,0.0,0.0,0.0,0.0,0.0,0.0,0.0,0.0,0.0,0.0,0.0,0.0,0.0,0.0,0.0,0.0,0.0,0.0,0.0,0.0,0.0,0.0,0.0,0.0,0.0,0.0,0.0,0.0,0.0,0.0,0.0,0.0,0.0,0.0,0.0,0.0,0.0,0.0,0.0,0.0,0.0,0.0,0.0,0.0,0.0,0.0,0.0,0.0,0.0,0.0,0.0,0.0,0.0,0.0,0.0,0.0,0.0,0.0,0.0,0.0,0.0,0.0,0.0,0.0,0.0,0.0,0.0,0.0,0.0,0.0,0.0,0.0,0.0,0.0,0.0,0.0,0.0,0.0,6.3043,6.6367,6.8281,6.9101,6.9219,6.8555,6.6719,6.457,6.2148,5.6985,0.0,0.0,0.0,0.0,0.0,0.0,0.0,0.0,0.0,0.0,0.0,0.0,0.0,0.0,0.0,0.0,0.0,0.0,0.0,0.0,0.0,0.0,0.0,0.0,0.0,0.0,0.0,0.0,0.0,0.0,0.0,0.0,0.0,0.0,0.0,0.0,0.0,0.0,0.0,0.0,0.0,0.0,0.0,0.0,0.0,0.0,0.0,0.0,0.0,0.0,0.0,0.0,0.0,0.0,0.0,0.0,0.0,0.0,0.0,0.0,0.0,0.0,0.0,0.0,0.0,0.0,0.0,0.0,0.0,0.0,0.0,0.0,0.0,0.0,0.0,0.0,0.0,0.0,0.0,0.0,0.0,0.0,0.0,0.0,0.0,0.0,0.0,0.0,0.0,0.0,0.0,0.0,0.0,0.0,0.0,0.0,0.0,0.0,0.0,0.0,0.0,0.0,6.3395,6.6562,6.914,6.9414,6.9375,6.9336,6.7031,6.4844,6.3008,5.7304,0.0,0.0,0.0,0.0,0.0,0.0,0.0,0.0,0.0,0.0,0.0,0.0,0.0,0.0,0.0,0.0,0.0,0.0,0.0,0.0,0.0,0.0,0.0,0.0,0.0,0.0,0.0,0.0,0.0,0.0,0.0,0.0,0.0,0.0,0.0,0.0,0.0,0.0,0.0,0.0,0.0,0.0,0.0,0.0,0.0,0.0,0.0,0.0,0.0,0.0,0.0,0.0,0.0,0.0,0.0,0.0,0.0,0.0,0.0,0.0,0.0,0.0,0.0,0.0,0.0,0.0,0.0,0.0,0.0,0.0,0.0,0.0,0.0,0.0,0.0,0.0,0.0,0.0,0.0,0.0,0.0,0.0,0.0,0.0,0.0,0.0,0.0,0.0,0.0,0.0,0.0,0.0,0.0,0.0,0.0,0.0,0.0,0.0,0.0,0.0,0.0,0.0,6.4726,6.8008,7.0039,7.0703,7.0781,7.0273,6.8359,6.6015,6.3164,0.0,0.0,0.0,0.0,0.0,0.0,0.0,0.0,0.0,0.0,0.0,0.0,0.0,0.0,0.0,0.0,0.0,0.0,0.0,0.0,0.0,0.0,0.0,0.0,0.0,0.0,0.0,0.0,0.0,0.0,0.0,0.0,0.0,0.0,0.0,0.0,0.0,0.0,0.0,0.0,0.0,0.0,0.0,0.0,0.0,0.0,0.0,0.0,0.0,0.0,0.0,0.0,0.0,0.0,0.0,0.0,0.0,0.0,0.0,0.0,0.0,0.0,0.0,0.0,0.0,0.0,0.0,0.0,0.0,0.0,0.0,0.0,0.0,0.0,0.0,0.0,0.0,0.0,0.0,0.0,0.0,0.0,0.0,0.0,0.0,0.0,0.0,0.0,0.0,0.0,0.0,0.0,0.0,0.0,0.0,0.0,0.0,0.0,0.0,0.0,0.0,0.0,6.2265,6.625,6.9453,7.1719,7.2461,7.2578,7.1992,6.9883,6.7226,6.4023,0.0,0.0,0.0,0.0,0.0,0.0,0.0,0.0,0.0,0.0,0.0,0.0,0.0,0.0,0.0,0.0,0.0,0.0,0.0,0.0,0.0,0.0,0.0,0.0,0.0,0.0,0.0,0.0,0.0,0.0,0.0,0.0,0.0,0.0,0.0,0.0,0.0,0.0,0.0,0.0,0.0,0.0,0.0,0.0,0.0,0.0,0.0,0.0,0.0,0.0,0.0,0.0,0.0,0.0,0.0,0.0,0.0,0.0,0.0,0.0,0.0,0.0,0.0,0.0,0.0,0.0,0.0,0.0,0.0,0.0,0.0,0.0,0.0,0.0,0.0,0.0,0.0,0.0,0.0,0.0,0.0,0.0,0.0,0.0,0.0,0.0,0.0,0.0,0.0,0.0,0.0,0.0,0.0,0.0,0.0,0.0,0.0,0.0,0.0,0.0,0.0,0.0,6.4726,6.7851,7.0742,7.4219,7.4609,7.4609,7.4609,7.1406,6.8359,0.0,0.0,0.0,0.0,0.0,0.0,0.0,0.0,0.0,0.0,0.0,0.0,0.0,0.0,0.0,0.0,0.0,0.0,0.0,0.0,0.0,0.0,0.0,0.0,0.0,0.0,0.0,0.0,0.0,0.0,0.0,0.0,0.0,0.0,0.0,0.0,0.0,0.0,0.0,0.0,0.0,0.0,0.0,0.0,0.0,0.0,0.0,0.0,0.0,0.0,0.0,0.0,0.0,0.0,0.0,0.0,0.0,0.0,0.0,0.0,0.0,0.0,0.0,0.0,0.0,0.0,0.0,0.0,0.0,0.0,0.0,0.0,0.0,0.0,0.0,0.0,0.0,0.0,0.0,0.0,0.0,0.0,0.0,0.0,0.0,0.0,0.0,0.0,0.0,0.0,0.0,0.0,0.0,0.0,0.0,0.0,0.0,0.0,0.0,0.0,0.0,0.0,0.0,6.5781,6.9297,7.2109,7.4375,7.4609,7.4609,7.4609,7.2539,6.9883,6.6719,0.0,0.0,0.0,0.0,0.0,0.0,0.0,0.0,0.0,0.0,0.0,0.0,0.0,0.0,0.0,0.0,0.0,0.0,0.0,0.0,0.0,0.0,0.0,0.0,0.0,0.0,0.0,0.0,0.0,0.0,0.0,0.0,0.0,0.0,0.0,0.0,0.0,0.0,0.0,0.0,0.0,0.0,0.0,0.0,0.0,0.0,0.0,0.0,0.0,0.0,0.0,0.0,0.0,0.0,0.0,0.0,0.0,0.0,0.0,0.0,0.0,0.0,0.0,0.0,0.0,0.0,0.0,0.0,0.0,0.0,0.0,0.0,0.0,0.0,0.0,0.0,0.0,0.0,0.0,0.0,0.0,0.0,0.0,0.0,0.0,0.0,0.0,0.0,0.0,0.0,0.0,0.0,0.0,0.0,0.0,0.0,0.0,0.0,0.0,0.0,0.0,0.0,6.7617,7.1133,7.3945,7.6367,7.664,7.664,7.664,7.4726,7.2226,6.914,0.0,0.0,0.0,0.0,0.0,0.0,0.0,0.0,0.0,0.0,0.0,0.0,0.0,0.0,0.0,0.0,0.0,0.0,0.0,0.0,0.0,0.0,0.0,0.0,0.0,0.0,0.0,0.0,0.0,0.0,0.0,0.0,0.0,0.0,0.0,0.0,0.0,0.0,0.0,0.0,0.0,0.0,0.0,0.0,0.0,0.0,0.0,0.0,0.0,0.0,0.0,0.0,0.0,0.0,0.0,0.0,0.0,0.0,0.0,0.0,0.0,0.0,0.0,0.0,0.0,0.0,0.0,0.0,0.0,0.0,0.0,0.0,0.0,0.0,0.0,0.0,0.0,0.0,0.0,0.0,0.0,0.0,0.0,0.0,0.0,0.0,0.0,0.0,0.0,0.0,0.0,0.0,0.0,0.0,0.0,0.0,0.0,0.0,0.0,0.0,0.0,0.0,6.9844,7.3164,7.6094,7.9336,7.9687,7.9687,7.9687,7.75,7.5039,7.2422,0.0,0.0,0.0,0.0,0.0,0.0,0.0,0.0,0.0,0.0,0.0,0.0,0.0,0.0,0.0,0.0,0.0,0.0,0.0,0.0,0.0,0.0,0.0,0.0,0.0,0.0,0.0,0.0,0.0,0.0,0.0,0.0,0.0,0.0,0.0,0.0,0.0,0.0,0.0,0.0,0.0,0.0,0.0,0.0,0.0,0.0,0.0,0.0,0.0,0.0,0.0,0.0,0.0,0.0,0.0,0.0,0.0,0.0,0.0,0.0,5.2305,0.0,0.0,0.0,0.0,0.0,0.0,0.0,0.0,0.0,0.0,0.0,0.0,0.0,0.0,0.0,0.0,0.0,0.0,0.0,0.0,0.0,0.0,0.0,0.0,0.0,0.0,0.0,0.0,0.0,0.0,0.0,0.0,0.0,0.0,0.0,0.0,0.0,0.0,0.0,0.0,0.0,7.0898,7.4609,7.7422,7.9492,7.9687,7.9687,7.9687,7.8633,7.6836,7.4219,7.0078,0.0,0.0,0.0,0.0,0.0,0.0,0.0,0.0,0.0,0.0,0.0,0.0,0.0,0.0,0.0,0.0,0.0,0.0,0.0,0.0,0.0,0.0,0.0,0.0,0.0,0.0,0.0,0.0,0.0,0.0,0.0,0.0,0.0,0.0,0.0,0.0,0.0,0.0,0.0,0.0,0.0,0.0,0.0,0.0,0.0,0.0,0.0,0.0,0.0,0.0,0.0,0.0,0.0,0.0,0.0,0.0,0.0,0.0,0.0,0.0,5.4648,0.0,0.0,0.0,0.0,0.0,0.0,0.0,0.0,0.0,0.0,0.0,0.0,0.0,0.0,0.0,0.0,0.0,0.0,0.0,0.0,0.0,0.0,0.0,0.0,0.0,0.0,0.0,0.0,0.0,0.0,0.0,0.0,0.0,0.0,0.0,0.0,0.0,0.0,0.0,0.0,7.2461,7.664,7.9844,8.1953,8.2187,8.2031,8.1601,8.082,7.9375,7.7187,7.3828,0.0,0.0,0.0,0.0,0.0,0.0,0.0,0.0,0.0,0.0,0.0,0.0,0.0,0.0,0.0,0.0,0.0,0.0,0.0,0.0,0.0,0.0,0.0,0.0,0.0,0.0,0.0,0.0,0.0,0.0,0.0,0.0,0.0,0.0,0.0,0.0,0.0,0.0,0.0,0.0,0.0,0.0,0.0,0.0,0.0,0.0,0.0,0.0,0.0,0.0,0.0,0.0,0.0,6.1289,6.2851,6.3711,6.5156,6.5898,6.582,6.1562,5.8945,5.7578,5.6015,0.0,0.0,0.0,0.0,0.0,0.0,0.0,0.0,0.0,0.0,0.0,0.0,0.0,0.0,0.0,0.0,0.0,0.0,0.0,0.0,0.0,0.0,0.0,0.0,6.5195,6.4101,6.0156,0.0,0.0,0.0,0.0,0.0,0.0,0.0,0.0,0.0,0.0,0.0,7.4492,7.875,8.2187,8.4648,8.4883,8.4609,8.3906,8.3164,8.207,8.0469,7.7461,7.4219,0.0,0.0,0.0,0.0,0.0,0.0,0.0,0.0,0.0,0.0,0.0,0.0,0.0,0.0,0.0,0.0,0.0,0.0,0.0,0.0,0.0,0.0,0.0,0.0,0.0,0.0,0.0,0.0,0.0,0.0,0.0,0.0,4.6719,4.7031,0.0,0.0,0.0,0.0,0.0,0.0,0.0,0.0,0.0,0.0,0.0,0.0,0.0,5.8476,5.9375,6.1094,6.2461,6.3476,6.457,6.5547,6.6406,6.6601,6.7148,6.7812,6.7148,0.0,6.207,6.1094,0.0,0.0,0.0,0.0,0.0,0.0,0.0,0.0,0.0,0.0,0.0,0.0,0.0,0.0,0.0,0.0,0.0,0.0,0.0,0.0,0.0,0.0,6.543,6.8086,6.8789,6.9023,0.0,6.5664,6.1836,6.1953,6.0,0.0,0.0,0.0,0.0,0.0,0.0,0.0,7.7187,8.039,8.2851,8.4687,8.4883,8.4844,8.4726,8.4609,8.414,8.3164,8.125,7.8945,7.6289,7.1875,0.0,0.0,0.0,0.0,0.0,0.0,0.0,0.0,0.0,0.0,0.0,0.0,0.0,0.0,0.0,0.0,0.0,0.0,0.0,0.0,0.0,0.0,0.0,0.0,0.0,0.0,0.0,0.0,0.0,4.8398,5.082,5.1797,5.1484,5.0664,0.0,0.0,0.0,0.0,0.0,0.0,0.0,0.0,0.0,6.0273,6.2422,6.3945,6.4765,6.6484,6.7539,6.789,6.9297,7.0117,7.0508,7.1015,7.1445,7.1797,7.1797,7.0664,6.8555,6.5781,6.3164,6.0859,0.0,0.0,0.0,0.0,5.9531,6.0351,6.0234,6.0859,6.1445,6.0078,0.0,0.0,0.0,0.0,0.0,0.0,0.0,6.2461,0.0,0.0,6.9726,7.1836,7.2734,7.3281,7.4023,7.25,7.039,0.0,6.6015,6.4297,6.4336,0.0,0.0,0.0,0.0,7.4726,7.9297,8.2578,8.4961,8.6211,8.6367,8.6172,8.5664,8.5625,8.5273,8.4375,8.3594,8.2265,8.0156,7.6875,7.3242,0.0,0.0,0.0,0.0,0.0,0.0,0.0,0.0,0.0,0.0,0.0,0.0,0.0,0.0,0.0,0.0,0.0,0.0,0.0,0.0,0.0,0.0,0.0,0.0,0.0,0.0,0.0,0.0,5.1758,5.4023,5.5742,5.539,5.4492,0.0,0.0,0.0,0.0,0.0,0.0,6.1015,6.1953,6.3476,6.5859,6.7617,6.8867,6.9492,7.0976,7.1797,7.2031,7.3359,7.4062,7.4336,7.4961,7.5273,7.5273,7.5273,7.4883,7.3984,7.0117,6.75,6.5859,6.5234,6.4453,6.3711,6.3945,6.4805,6.5898,6.5469,6.6133,6.7031,6.5703,6.457,6.3515,6.2656,0.0,0.0,0.0,0.0,6.8242,7.125,7.2695,7.3711,7.5234,7.6094,7.6601,7.6836,7.7383,7.6953,0.0,7.1601,7.0273,7.0664,0.0,0.0,7.1719,7.4609,7.7812,8.1211,8.4101,8.6289,8.7383,8.75,8.7226,8.6601,8.6523,8.625,8.5625,8.5156,8.4414,8.3359,8.0625,7.7617,7.4375,0.0,0.0,0.0,0.0,0.0,0.0,0.0,0.0,0.0,0.0,0.0,0.0,0.0,0.0,0.0,0.0,0.0,0.0,0.0,0.0,0.0,0.0,0.0,0.0,0.0,0.0,0.0,0.0,0.0,5.7578,5.7734,0.0,0.0,0.0,0.0,6.1133,6.2031,6.3711,6.6367,6.7344,6.8594,7.0312,7.207,7.3008,7.3047,7.3945,7.4805,7.5625,7.5742,7.6211,7.6992,7.7031,7.707,7.707,7.707,7.7031,7.6797,7.4101,7.1953,7.0351,7.0312,6.9805,6.9219,6.9961,7.0312,7.0508,7.1289,7.1601,7.164,7.1562,7.043,6.8945,6.8086,6.7812,0.0,0.0,7.1523,7.332,7.5156,7.6289,7.7187,7.8086,7.8359,7.8594,7.9336,7.9531,7.9062,0.0,7.6172,7.5273,7.4453,0.0,7.4531,7.5508,7.7187,7.9609,8.3047,8.4336,8.5625,8.7304,8.75,8.7461,8.7422,8.7422,8.7422,8.7383,8.582,8.5234,8.5976,8.2695,8.0781,8.0547,7.5469,0.0,0.0,0.0,0.0,0.0,0.0,0.0,0.0,0.0,0.0,0.0,0.0,0.0,0.0,0.0,0.0,0.0,0.0,0.0,0.0,0.0,0.0,0.0,0.0,0.0,0.0,0.0,0.0,6.0976,6.168,0.0,6.125,6.3008,6.4648,6.5781,6.7187,6.8867,7.0898,7.1328,7.1992,7.3164,7.4883,7.582,7.582,7.7187,7.8047,7.8359,7.8359,7.8515,7.8828,7.8828,7.8828,7.8828,7.8828,7.8828,7.875,7.7812,7.6406,7.4883,7.4883,7.4726,7.4492,7.4765,7.5234,7.5664,7.543,7.5703,7.6094,7.5547,7.4922,7.4297,7.3437,7.3555,7.4101,7.4726,7.5742,7.6914,7.8047,7.8594,7.8906,7.9219,7.9687,8.0195,8.0469,8.0976,8.1367,8.1328,7.9726,7.8437,7.8672,7.8242,7.8164,7.9062,8.0664,8.2422,8.4219,8.5703,8.6797,8.7422,8.75,8.75,8.75,8.75,8.7265,8.6719,8.6601,8.6211,8.539,8.4179,8.2969,8.1875,7.8437,7.4922,0.0,0.0,0.0,0.0,0.0,0.0,0.0,0.0,0.0,0.0,0.0,0.0,0.0,0.0,0.0,0.0,0.0,0.0,0.0,0.0,0.0,0.0,0.0,0.0,0.0,5.9297,6.1914,6.3672,6.4922,6.5508,6.5234,6.7265,6.8984,6.9844,7.1211,7.2773,7.4531,7.4609,7.5156,7.6289,7.7422,7.8047,7.8047,7.914,7.9844,8.0156,8.0156,8.0469,8.1015,8.1015,8.1172,8.1445,8.1445,8.1445,8.1445,8.1445,8.0781,7.9687,7.8515,7.8047,7.8047,7.8047,7.8398,7.8828,7.8242,7.8437,7.8828,7.8242,7.8047,7.793,7.7344,7.7578,7.8086,7.8398,7.8906,7.9531,8.0351,8.0586,8.0664,8.0937,8.1445,8.1953,8.2265,8.2773,8.3359,8.3945,8.2383,8.1289,8.2187,8.1836,8.164,8.2226,8.3281,8.4336,8.5234,8.6367,8.7187,8.7461,8.7734,8.7773,8.7539,8.7734,8.7539,8.6679,8.6914,8.6523,8.539,8.5078,8.4375,8.3203,8.0117,7.664,7.2851,0.0,0.0,0.0,0.0,0.0,0.0,0.0,0.0,0.0,0.0,0.0,0.0,0.0,0.0,0.0,0.0,0.0,0.0,0.0,0.0,0.0,0.0,0.0,5.9453,6.1562,6.3828,6.5547,6.7265,6.8672,6.9531,7.1133,7.2461,7.3359,7.4219,7.5469,7.7187,7.7265,7.8008,7.9648,7.9726,7.9726,7.9726,7.9765,8.0195,8.1054,8.1054,8.1914,8.3554,8.3554,8.4023,8.4804,8.4804,8.4804,8.4804,8.4804,8.4804,8.4492,8.1133,7.9805,7.9805,7.9805,7.9765,7.9765,7.9765,7.9765,7.9765,7.9765,7.9765,7.9765,7.9765,7.9805,8.0,8.0859,8.1094,8.1328,8.2148,8.2383,8.2578,8.3437,8.3633,8.3867,8.4726,8.4883,8.4922,8.4922,8.4258,8.3945,8.4765,8.4883,8.4883,8.4883,8.4922,0.0,8.6094,8.625,8.6601,8.7461,8.8242,8.8437,8.7656,8.8281,8.8359,8.7539,8.6719,8.6211,8.6172,8.5351,8.4883,8.4804,8.0703,7.6484,7.2226,0.0,0.0,0.0,0.0,0.0,0.0,0.0,0.0,0.0,0.0,0.0,0.0,0.0,0.0,0.0,0.0,0.0,0.0,0.0,0.0,0.0,6.1055,6.3164,6.293,6.5117,6.7383,6.9101,7.0273,7.1289,7.2187,7.3828,7.5195,7.6055,7.6953,7.789,7.8945,7.9023,7.9219,7.9687,8.0312,8.0625,8.0625,8.1289,8.1719,8.1953,8.1953,8.2187,8.2656,8.2656,8.2773,8.3008,8.3008,8.3008,8.3008,8.3008,8.3008,8.2969,8.2656,8.2539,8.2461,8.1836,8.1601,8.1601,8.1601,8.1601,8.1601,8.1601,8.1601,8.1601,8.1601,8.2031,8.2578,8.2812,8.3359,8.3867,8.4101,8.4179,8.4258,8.4492,8.4531,8.4609,8.4844,8.4883,8.5078,8.5703,8.5664,8.5351,8.4961,8.4883,8.4883,8.4883,8.5429,8.5937,8.6172,8.7265,8.8086,8.8359,8.914,8.9531,8.9336,8.8945,8.8359,8.7539,8.7265,8.6562,8.5312,8.5039,8.4297,8.3047,8.125,7.9414,0.0,0.0,0.0,0.0,0.0,0.0,0.0,0.0,0.0,0.0,0.0,0.0,0.0,0.0,0.0,0.0,0.0,0.0,0.0,0.0,0.0,0.0,6.4805,6.7109,6.7461,6.8828,7.0273,7.164,7.289,7.3984,7.4844,7.6172,7.7344,7.8164,7.8711,7.9375,8.0195,8.0234,8.039,8.0781,8.1289,8.1719,8.2109,8.2578,8.3047,8.3398,8.3398,8.3594,8.3945,8.3945,8.414,8.4492,8.4492,8.4492,8.4492,8.4492,8.4492,0.0,0.0,0.0,0.0,0.0,8.3086,8.3398,8.3398,8.3398,8.3398,8.3398,8.3398,8.3398,8.3398,8.375,8.414,8.414,8.4492,8.4883,8.4883,8.4883,8.5,8.5351,8.5429,8.5625,8.6328,8.6484,8.6758,8.7617,8.7773,0.0,8.7109,8.6719,8.6484,8.6484,8.7226,8.7773,8.7773,8.8633,8.9258,8.9258,9.0039,9.039,9.0039,8.9883,0.0,0.0,0.0,8.7773,8.6054,8.5273,0.0,0.0,0.0,0.0,0.0,0.0,0.0,0.0,7.0195,7.0898,0.0,0.0,0.0,0.0,0.0,0.0,0.0,0.0,0.0,0.0,0.0,0.0,0.0,0.0,0.0,0.0,6.8398,7.1328,7.2305,7.2539,7.2851,7.3515,7.5039,7.6406,7.7265,7.8125,7.8984,7.9805,7.9844,8.0234,8.1094,8.1133,0.0,0.0,0.0,8.2851,8.375,8.375,8.414,8.4883,8.4883,8.5312,8.6054,8.6054,8.6484,8.7226,8.7226,8.7226,8.7226,8.7226,8.7226,8.6914,8.3906,8.2695,8.2695,8.3476,8.4258,8.4883,8.4883,0.0,0.0,8.4883,8.4883,8.4883,8.4883,8.4961,8.5039,8.5039,8.5195,8.5312,8.5312,8.539,8.5664,8.6445,8.664,8.7031,8.8515,8.8867,8.9062,8.9844,9.0,9.0,9.0,8.9375,8.8867,8.8867,8.9492,9.0,9.0,9.0078,9.0156,9.0156,9.0937,0.0,9.0351,9.0898,9.0976,9.0195,9.0039,8.9297,8.7695,8.6133,8.5234,8.5039,8.4375,8.3594,8.2734,8.207,8.1719,8.1679,7.8906,7.8515,0.0,0.0,0.0,0.0,0.0,0.0,0.0,0.0,0.0,0.0,0.0,0.0,0.0,0.0,0.0,6.8945,7.1328,7.3359,7.4922,7.5742,7.6015,7.5469,7.6328,7.7305,7.8164,7.8984,7.9805,8.0664,8.0742,8.1133,8.1992,8.2031,8.2461,8.332,8.3359,8.3789,8.4648,8.4648,8.4726,8.4883,8.4883,0.0,8.5156,8.5156,8.5234,8.539,8.539,8.539,8.539,8.539,8.539,8.539,8.5429,8.5039,8.4414,8.4609,8.4765,8.4883,8.4883,8.4883,8.4883,8.4883,8.4883,8.4883,8.4883,8.539,0.0,8.5937,8.6914,8.7969,8.7969,8.8476,8.9062,8.9219,8.9258,8.9336,8.9687,8.9765,8.9804,8.9961,9.0,9.0,9.0,8.9844,8.9765,8.9765,8.9883,9.0,9.0,9.0625,9.1054,9.1054,9.1836,9.2265,9.2109,9.1601,9.1211,9.1054,9.039,8.9531,8.8515,8.8125,8.7344,8.5976,8.6484,8.6328,8.5469,8.5976,8.625,8.6133,8.2148,8.1172,0.0,0.0,0.0,0.0,0.0,0.0,0.0,0.0,0.0,0.0,0.0,6.2422,6.457,0.0,6.9492,7.164,7.3828,7.5547,7.6445,7.7656,7.8125,7.7305,7.793,7.8789,7.9687,8.0117,8.0703,8.1601,8.164,8.2031,8.289,8.2969,8.3359,8.4219,8.4258,8.4687,8.5547,8.5547,8.5781,8.6211,8.6211,8.6406,8.6797,8.6797,8.7031,8.7461,8.7461,8.7461,8.7461,8.7461,8.7461,8.75,8.7929,8.707,8.5547,8.5547,8.582,8.625,8.664,8.6797,8.6875,8.7304,8.7461,8.7461,8.7461,8.7773,8.8086,8.8086,8.8711,8.9336,8.9336,8.9687,9.0,9.0,9.0,9.0117,9.0547,9.0664,9.0781,9.1211,9.1289,9.1289,9.1289,9.1289,9.1133,9.0703,9.1015,9.1289,9.1289,9.1679,9.1953,9.1953,9.2344,9.2617,9.2617,9.2187,9.1953,9.1953,9.1133,9.0469,9.0039,8.957,8.8945,8.8125,8.8515,8.8554,8.8086,8.8554,8.875,8.8711,8.6523,8.5508,0.0,0.0,0.0,0.0,0.0,0.0,0.0,6.0625,6.2812,6.3164,6.5586,6.7969,6.8984,7.1133,7.3047,7.3906,7.6094,7.7695,7.7695,7.8984,7.9726,7.9062,7.957,8.0234,8.0937,8.1328,8.1797,8.25,8.2695,8.3125,8.3828,8.3867,8.4258,8.5117,8.5156,8.5664,8.6679,8.6679,8.7109,8.8008,8.8008,8.832,8.8945,8.8944,8.9334,8.9998,8.9999,9.0,9.0,9.0,9.0,9.0,9.0,8.875,8.6953,8.6953,8.7383,8.8086,8.8711,8.8945,8.9062,8.9765,9.0,9.0,9.0,9.0,9.0,9.0,9.0117,9.0234,9.0234,9.039,9.0508,9.0508,9.0508,9.0703,9.1406,9.1562,9.1758,9.2461,9.2617,9.2617,9.2617,9.2617,9.2344,9.164,9.2148,9.2617,9.2617,9.2617,9.2617,9.2617,9.2617,9.2617,9.2617,9.2773,9.2851,9.2851,9.2344,9.207,9.207,9.1211,9.0664,9.0508,9.0351,9.0156,9.0,9.0,9.0,9.0,9.0,8.9297,5.7342,5.8398,5.9765,6.0625,6.1562,6.2695,0.0,6.5508,6.6758,6.832,6.9492,7.0781,7.2422,7.4219,7.5742,7.6601,7.8242,7.9414,7.9414,8.0234,8.082,8.0742,8.0781,8.0898,8.0976,8.2383,8.3359,8.3437,8.4179,8.4648,8.4765,8.4765,8.5156,8.6015,8.6054,8.6836,8.8398,8.8437,8.8867,8.9726,8.9726,8.9765,8.9844,8.9861,8.9919,8.9997,8.9982,8.9996,9.0,9.0,9.0,9.0,9.0,8.9844,8.957,8.957,8.9648,8.9726,8.9804,8.9844,8.9883,8.9961,9.0,9.0,9.0,9.0,9.0,9.0,9.0547,9.1133,9.1133,9.1719,9.2304,9.2304,9.2304,9.2344,9.2422,9.2461,9.2461,9.2578,9.2617,9.2617,9.2617,9.2617,9.2578,9.2461,9.2539,9.2617,9.2617,9.2617,9.2617,9.2617,9.2617,9.2617,9.2617,9.332,9.375,9.375,9.4375,9.4765,9.4765,9.3945,9.3086,9.2304,9.1562,9.0781,9.0,9.0,9.0,9.0,9.0,8.9883,6.0859,6.1758,6.3008,6.4375,6.5742,6.7031,6.8281,6.9648,7.082,7.1562,7.3203,7.4726,7.543,7.6953,7.8242,7.8594,7.9687,8.0469,8.0469,8.1211,8.1758,8.1758,8.2187,8.25,8.25,8.3164,8.3828,8.4336,8.4687,8.5117,8.5625,8.5625,8.6211,8.7617,8.7656,8.8242,8.9453,8.9453,8.9607,8.9865,8.9865,9.0139,9.0642,9.0647,9.095,9.1467,9.1481,9.1497,9.1506,9.1521,9.1523,9.1523,9.1523,9.1523,9.1406,9.0351,9.0,9.0078,9.0586,9.0742,9.0859,9.1367,9.1523,9.1523,9.1523,9.1523,9.1523,9.1523,9.1797,9.2187,9.2695,9.3086,9.3476,9.3984,9.4101,9.4101,9.4101,9.4101,9.4101,9.4101,9.3711,9.3359,9.3359,9.2929,9.2617,9.2617,9.2617,9.2617,9.2617,9.2617,9.2617,9.2617,9.2617,9.2617,9.2617,9.3398,9.3906,9.3906,9.4726,9.5195,9.5195,9.4844,9.4258,9.3359,9.3008,9.2383,9.1523,9.1523,9.1523,9.1523,9.1523,9.1523,6.3982,6.5036,6.6443,6.7925,6.9413,7.0703,7.1562,7.293,7.4101,7.4336,7.6055,7.7617,7.7851,7.9062,8.0078,8.0078,8.0781,8.1367,8.1367,8.2109,8.2656,8.2656,8.3437,8.4062,8.4297,8.4336,8.457,8.5195,8.5469,8.5976,8.6832,8.6831,8.7457,8.8942,8.902,8.9409,9.0309,9.0338,9.0393,9.053,9.0501,9.0841,9.1465,9.173,9.2206,9.2866,9.3146,9.3302,9.3309,9.3273,9.3281,9.332,9.332,9.332,9.3164,9.1914,9.1133,9.082,9.1445,9.164,9.1758,9.2383,9.2617,9.2656,9.289,9.2969,9.3008,9.3242,9.332,9.3476,9.4101,9.4258,9.4414,9.5039,9.5195,9.5195,9.5195,9.5195,9.5117,9.4883,9.4336,9.3828,9.3594,9.3008,9.2617,9.2617,9.2812,9.2851,9.2617,9.2617,9.2617,9.2617,9.2617,9.2617,9.2617,9.3398,9.3984,9.4258,9.5078,9.5664,9.5898,9.5664,9.5156,9.4297,9.4023,9.3476,9.2617,9.2851,9.2969,9.2969,9.3203,9.332,6.6457,6.8557,7.0704,7.1602,7.2528,7.3398,7.4297,7.5195,7.6055,7.6914,7.7812,7.8711,7.9492,8.0351,8.0976,8.0976,8.1679,8.2265,8.2265,8.3008,8.3554,8.3554,8.4336,8.5195,8.6054,8.6133,8.6133,8.6172,8.6875,8.769,8.8468,8.854,8.8897,8.9756,8.975,9.0179,9.1038,9.1142,9.1534,9.2313,9.2306,9.2325,9.2384,9.3302,9.3749,9.3807,9.4661,9.502,9.5027,9.5016,9.5072,9.5117,9.5117,9.5117,9.5117,9.5078,9.3984,9.2539,9.2539,9.2578,9.2578,9.2578,9.2617,9.2773,9.3594,9.3867,9.4023,9.4883,9.5117,9.5117,9.5156,9.5156,9.5156,9.5195,9.5195,9.5195,9.5195,9.5195,9.4961,9.4101,9.3906,9.3633,9.2773,9.2617,9.2617,9.2617,9.332,9.3554,9.2695,9.2617,9.2617,9.2617,9.2617,9.2617,9.2617,9.3398,9.4258,9.5117,9.5976,9.6797,9.7578,9.6875,9.6054,9.5195,9.4336,9.3476,9.2617,9.3437,9.3867,9.3867,9.4726,9.5117,6.8227,6.9956,7.1846,7.3303,7.4754,7.6055,7.6914,7.7812,7.8515,7.8789,7.9531,8.0234,8.0508,8.1289,8.2031,8.2617,8.25,8.2695,8.3867,8.3789,8.3828,8.4375,8.5234,8.5898,8.6172,8.6211,8.6406,8.6953,8.7724,8.8273,8.8451,8.8973,8.9652,9.0508,9.0547,9.1272,9.2729,9.2847,9.3249,9.4067,9.4045,9.4051,9.4067,9.4445,9.4607,9.4607,9.4966,9.5098,9.5098,9.5094,9.515,9.5195,9.5195,9.5195,9.5195,9.5195,9.4844,9.4336,9.4336,9.4336,9.4336,9.4336,9.4336,9.4375,9.4687,9.4765,9.4804,9.5117,9.5195,9.5312,9.5898,9.6054,9.6211,9.6719,9.6875,9.6875,9.6875,9.6875,9.6758,9.6484,9.5976,9.5547,9.5234,9.4726,9.4336,9.4336,9.4062,9.3984,9.4297,9.4336,9.4336,9.4336,9.4336,9.4336,9.4336,9.4609,9.4883,9.5195,9.5469,9.6015,9.6875,9.664,9.6094,9.5234,9.4922,9.4336,9.3476,9.375,9.4219,9.4765,9.5078,9.5195,7.0692,7.2368,7.4041,7.5473,7.6917,7.8159,7.8711,7.9297,7.9687,7.9687,8.0156,8.0547,8.0547,8.125,8.2109,8.3008,8.2929,8.3242,8.4687,8.4687,8.4726,8.5312,8.6406,8.7109,8.7109,8.734,8.7609,8.7805,8.854,8.9075,8.924,8.9719,9.04,9.1277,9.1601,9.2326,9.3561,9.392,9.4379,9.4885,9.4902,9.4885,9.4879,9.5225,9.5368,9.5407,9.5778,9.5963,9.5941,9.5971,9.6036,9.6091,9.6093,9.6094,9.6094,9.6094,9.6094,9.6015,9.539,9.5195,9.5195,9.5195,9.5195,9.5273,9.5586,9.5664,9.5703,9.6015,9.6094,9.6211,9.6797,9.6914,9.707,9.7578,9.7695,9.7695,9.7695,9.7695,9.7617,9.7344,9.6836,9.6406,9.6094,9.5586,9.5312,9.5625,9.5195,9.4922,9.5156,9.5195,9.5195,9.5195,9.5195,9.5195,9.5195,9.5195,9.5312,9.5625,9.5664,9.5937,9.6484,9.6484,9.5937,9.4765,9.4726,9.4453,9.3906,9.4219,9.4804,9.5664,9.5976,9.6094,7.3682,7.5616,7.7149,7.8053,7.8954,7.965,7.9764,7.9765,7.9765,7.9726,7.9687,7.9648,7.9648,8.0351,8.125,8.2226,8.3047,8.3945,8.4883,8.5703,8.6211,8.6328,8.7734,8.8711,8.875,8.9471,8.9626,8.8759,8.9337,9.0057,9.0768,9.0766,9.1174,9.2025,9.2852,9.3413,9.3646,9.4574,9.5041,9.5011,9.4951,9.4949,9.497,9.5785,9.617,9.6226,9.7082,9.7499,9.7505,9.7583,9.7628,9.7676,9.7693,9.7695,9.7695,9.7695,9.7695,9.7461,9.5898,9.5312,9.5312,9.5312,9.5312,9.5469,9.6328,9.6562,9.6719,9.75,9.7695,9.7695,9.7695,9.7695,9.7695,9.7695,9.7695,9.7695,9.7695,9.7695,9.7461,9.6719,9.6562,9.6289,9.5469,9.5312,9.5625,9.6445,9.6562,9.625,9.5429,9.5312,9.5312,9.5312,9.5312,9.5312,9.5312,9.5273,9.5625,9.6445,9.6445,9.6445,9.6484,9.6484,9.5703,9.3984,9.3984,9.3945,9.3906,9.4765,9.5664,9.6523,9.7344,9.7695,7.4706,7.6319,7.7873,7.8781,7.9753,8.0466,8.0582,8.0618,8.0469,7.9844,7.9219,7.8828,7.8828,7.9492,8.0742,8.2929,8.3476,8.4375,8.6523,8.6484,8.664,8.789,8.8398,8.8865,8.9544,9.0247,9.0521,9.0241,9.0421,9.0574,9.074,9.1241,9.1948,9.2866,9.3124,9.3897,9.5373,9.6278,9.6772,9.6779,9.6677,9.6677,9.6659,9.6818,9.6935,9.6935,9.7238,9.7364,9.7379,9.7486,9.7552,9.755,9.7602,9.7617,9.7648,9.7687,9.7687,9.765,9.7226,9.707,9.707,9.707,9.707,9.7109,9.7344,9.7383,9.7422,9.7656,9.7695,9.7695,9.7695,9.7695,9.7695,9.7695,9.7695,9.7695,9.7695,9.7695,9.7656,9.7422,9.7383,9.7304,9.7109,9.707,9.7148,9.7344,9.7383,9.7304,9.7109,9.707,9.707,9.707,9.707,9.707,9.707,9.6523,9.625,9.6484,9.5898,9.582,9.6484,9.6484,9.5976,9.4883,9.4883,9.4531,9.3906,9.4765,9.5664,9.6523,9.7344,9.7695,7.7116,7.8258,7.9305,8.0644,8.1095,8.1272,8.1392,8.0914,7.9961,7.8359,7.7383,7.668,7.6289,7.7226,7.8984,8.1992,8.3086,8.4492,8.7148,8.7383,8.7656,8.8594,8.9332,8.9925,9.0327,9.1007,9.1413,9.1331,9.1307,9.1261,9.1174,9.1909,9.2595,9.3137,9.3861,9.4984,9.6461,9.6993,9.7266,9.7303,9.7237,9.7198,9.7198,9.7153,9.7137,9.7137,9.7186,9.7227,9.7227,9.7284,9.736,9.741,9.7442,9.7487,9.7581,9.762,9.7628,9.765,9.7676,9.7691,9.7695,9.7695,9.7695,9.7695,9.7695,9.7695,9.7695,9.7695,9.7695,9.7695,9.7695,9.7695,9.7695,9.7695,9.7695,9.7695,9.7695,9.7695,9.7695,9.7695,9.7695,9.7695,9.7695,9.7695,9.7695,9.7695,9.7695,9.7695,9.7695,9.7695,9.7695,9.7695,9.7695,9.7695,9.7695,9.7304,9.7031,9.7031,9.6562,9.6367,9.6484,9.6484,9.6094,9.5234,9.5195,9.4961,9.4453,9.4961,9.5469,9.5937,9.6797,9.7187,7.9738,8.055,8.1092,8.2689,8.2544,8.2025,8.1922,8.0569,7.8632,7.6094,7.4765,7.3906,7.3242,7.4531,7.6875,8.0429,8.2461,8.4492,8.7148,8.8203,8.875,8.8866,9.0203,9.1181,9.1159,9.1795,9.2208,9.2169,9.2184,9.213,9.1976,9.2633,9.3137,9.3446,9.4976,9.6198,9.7076,9.7081,9.7092,9.7161,9.7102,9.7081,9.7081,9.6992,9.6979,9.6979,9.7057,9.7082,9.7082,9.7076,9.7165,9.7246,9.7266,9.7323,9.7465,9.7465,9.7486,9.755,9.7572,9.7628,9.7694,9.7695,9.7695,9.7695,9.7695,9.7695,9.7695,9.7695,9.7695,9.7695,9.7695,9.7695,9.7695,9.7695,9.7695,9.7695,9.7695,9.7695,9.7695,9.7695,9.7695,9.7695,9.7695,9.7695,9.7695,9.7695,9.7695,9.7695,9.7695,9.7695,9.7695,9.7695,9.7695,9.7695,9.7695,9.7695,9.7695,9.7695,9.7695,9.7383,9.6679,9.664,9.625,9.539,9.5351,9.5312,9.5195,9.5312,9.5351,9.539,9.625,9.664,7.9932,8.131,8.2471,8.2844,8.2893,8.2455,8.1247,7.9119,7.6775,7.4257,7.2461,7.1562,7.2109,7.3633,7.6172,8.0312,8.2461,8.4492,8.7148,8.8203,8.8943,8.9618,9.0433,9.1179,9.1859,9.2508,9.2921,9.2904,9.3463,9.354,9.2904,9.2943,9.365,9.512,9.6222,9.6831,9.7025,9.7006,9.7035,9.7014,9.6958,9.6919,9.6937,9.688,9.6812,9.6841,9.6898,9.6926,9.6926,9.6967,9.7018,9.7043,9.713,9.716,9.7186,9.7227,9.7303,9.7364,9.7409,9.7524,9.7623,9.7693,9.7695,9.7695,9.7695,9.7695,9.7695,9.7695,9.7695,9.7695,9.7695,9.7695,9.7695,9.7695,9.7695,9.7695,9.7695,9.7695,9.7695,9.7695,9.7695,9.7695,9.7695,9.7695,9.7695,9.7695,9.7695,9.7695,9.7695,9.7695,9.7695,9.7695,9.7695,9.7695,9.7695,9.7695,9.7695,9.7695,9.7695,9.7656,9.75,9.75,9.7109,9.6289,9.6289,9.5937,9.5195,9.5937,9.6289,9.6289,9.7109,9.75,8.0512,8.1813,8.2921,8.3476,8.3294,8.2583,8.1031,7.8447,7.5477,7.2538,7.0586,6.9648,7.0508,7.207,7.4648,7.8984,8.1523,8.3984,8.7031,8.8554,8.968,9.0433,9.1155,9.186,9.261,9.2948,9.3291,9.365,9.3998,9.4037,9.3678,9.4075,9.4888,9.6203,9.6667,9.6899,9.6899,9.6899,9.689,9.688,9.6851,9.6851,9.6841,9.6812,9.6783,9.6783,9.6812,9.6841,9.6841,9.687,9.6926,9.6953,9.6979,9.6993,9.7067,9.7091,9.7143,9.7246,9.7299,9.7394,9.7544,9.7633,9.7654,9.7695,9.7695,9.7695,9.7695,9.7695,9.7695,9.7695,9.7695,9.7695,9.7695,9.7695,9.7695,9.7695,9.7695,9.7695,9.7695,9.7695,9.7695,9.7695,9.7695,9.7695,9.7695,9.7695,9.7695,9.7695,9.7695,9.7695,9.7695,9.7695,9.7695,9.7695,9.7695,9.7695,9.7695,9.7695,9.7695,9.7695,9.7695,9.7695,9.7539,9.7148,9.7109,9.6719,9.5898,9.6289,9.6289,9.5859,9.6679,9.707,8.1271,8.2393,8.3308,8.4224,8.3734,8.2548,8.0805,7.7662,7.4232,7.1054,6.9101,6.8164,6.8984,7.0703,7.3281,7.7305,8.0234,8.3164,8.6406,8.8515,8.9974,9.0743,9.1606,9.2449,9.3126,9.3291,9.365,9.4433,9.4665,9.4665,9.4491,9.5313,9.6087,9.6783,9.6783,9.6783,9.6783,9.6783,9.6783,9.6783,9.6783,9.6783,9.6783,9.6783,9.6783,9.6783,9.6783,9.6783,9.6783,9.6783,9.6812,9.687,9.687,9.6898,9.6953,9.6953,9.7031,9.7153,9.7182,9.7305,9.7442,9.7515,9.7633,9.7695,9.7695,9.7695,9.7695,9.7695,9.7695,9.7695,9.7695,9.7695,9.7695,9.7695,9.7695,9.7695,9.7695,9.7695,9.7695,9.7695,9.7695,9.7695,9.7695,9.7695,9.7695,9.7695,9.7695,9.7695,9.7695,9.7695,9.7695,9.7695,9.7695,9.7695,9.7695,9.7695,9.7695,9.7695,9.7695,9.7695,9.7695,9.7695,9.7695,9.7695,9.7695,9.7383,9.6758,9.6758,9.6406,9.5742,9.6445,9.6758,8.2006,8.3308,8.4198,8.5075,8.4159,8.2393,8.0068,7.6286,7.2627,7.0038,6.8203,6.7265,6.8164,7.0312,7.289,7.5703,7.8945,8.207,8.4765,8.721,8.9017,8.982,9.1178,9.2332,9.3126,9.3737,9.4472,9.5322,9.6125,9.6241,9.54,9.6203,9.6706,9.6783,9.6783,9.6783,9.6783,9.6783,9.6783,9.6783,9.6783,9.6783,9.6783,9.6783,9.6783,9.6783,9.6783,9.6783,9.6783,9.6783,9.6783,9.6783,9.6783,9.6812,9.6812,9.6812,9.687,9.6953,9.7082,9.7176,9.7264,9.736,9.7544,9.7687,9.7695,9.7695,9.7695,9.7695,9.7695,9.7695,9.7695,9.7695,9.7695,9.7695,9.7695,9.7695,9.7695,9.7695,9.7695,9.7695,9.7695,9.7695,9.7695,9.7695,9.7695,9.7695,9.7695,9.7695,9.7695,9.7695,9.7695,9.7695,9.7695,9.7695,9.7695,9.7695,9.7695,9.7695,9.7695,9.7695,9.7695,9.7695,9.7695,9.7695,9.7695,9.7656,9.7578,9.7578,9.7539,9.7461,9.7539,9.7578,8.1349,8.3051,8.4185,8.4533,8.3822,8.2083,7.8614,7.5377,7.2275,6.9296,6.7734,6.7187,6.8047,6.9844,7.207,7.4687,7.8008,8.1133,8.375,8.6229,8.8305,8.9625,9.0672,9.1789,9.3087,9.3814,9.4781,9.6203,9.659,9.6667,9.6319,9.6628,9.6783,9.6783,9.6783,9.6783,9.6783,9.6783,9.6783,9.6783,9.6783,9.6783,9.6783,9.6783,9.6783,9.6783,9.6783,9.6783,9.6783,9.6783,9.6783,9.6783,9.6783,9.6783,9.6783,9.6783,9.6841,9.6898,9.6953,9.7057,9.7153,9.7225,9.7316,9.746,9.7589,9.7672,9.7691,9.7695,9.7695,9.7695,9.7695,9.7695,9.7695,9.7695,9.7695,9.7695,9.7695,9.7695,9.7695,9.7695,9.7695,9.7695,9.7695,9.7695,9.7695,9.7695,9.7695,9.7695,9.7695,9.7695,9.7695,9.7695,9.7695,9.7695,9.7695,9.7695,9.7695,9.7695,9.7695,9.7695,9.7695,9.7695,9.7695,9.7695,9.7695,9.7695,9.7695,9.7695,9.7695,9.7695,9.7695,9.7695,8.0705,8.2484,8.3436,8.3734,8.2848,8.0978,7.7313,7.4367,7.1588,6.8788,6.75,6.7109,6.7695,6.9414,7.1406,7.3476,7.6914,8.0156,8.25,8.5205,8.7575,8.9235,9.0245,9.1416,9.3048,9.4037,9.5206,9.6706,9.6783,9.6783,9.6783,9.6783,9.6783,9.6783,9.6783,9.6783,9.6783,9.6783,9.6783,9.6783,9.6783,9.6783,9.6783,9.6783,9.6783,9.6783,9.6783,9.6783,9.6783,9.6783,9.6783,9.6783,9.6783,9.6976,9.717,9.717,9.7354,9.7606,9.7363,9.734,9.7406,9.7169,9.7143,9.7285,9.741,9.7522,9.7623,9.7648,9.7694,9.7695,9.7695,9.7695,9.7695,9.7695,9.7695,9.7695,9.7695,9.7695,9.7695,9.7695,9.7695,9.7695,9.7695,9.7695,9.7695,9.7695,9.7695,9.7695,9.7695,9.7695,9.7695,9.7695,9.7695,9.7695,9.7695,9.7695,9.7695,9.7695,9.7695,9.7695,9.7695,9.7695,9.7695,9.7695,9.7695,9.7695,9.7695,9.7695,9.7695,9.7695,9.7695,9.7695,8.0536,8.1723,8.1941,8.2895,8.1259,7.8764,7.63,7.3119,7.0234,6.8555,6.75,6.6914,6.6914,6.8984,7.0976,7.1875,7.5664,7.9101,8.0781,8.3951,8.6702,8.83,8.9856,9.1416,9.3048,9.4578,9.5825,9.6744,9.6783,9.6783,9.6783,9.6783,9.6783,9.6783,9.6783,9.6783,9.6783,9.6783,9.6783,9.6783,9.6783,9.6783,9.6783,9.6783,9.6783,9.6783,9.6783,9.6783,9.6783,9.6783,9.6783,9.6783,9.6783,9.7325,9.8098,9.8098,9.8601,9.9143,9.8419,9.8176,9.8088,9.7251,9.7057,9.7106,9.7106,9.7284,9.7511,9.7581,9.7641,9.7695,9.7695,9.7695,9.7695,9.7695,9.7695,9.7695,9.7695,9.7695,9.7695,9.7695,9.7695,9.7695,9.7695,9.7695,9.7695,9.7695,9.7695,9.7695,9.7695,9.7695,9.7695,9.7695,9.7695,9.7695,9.7695,9.7695,9.7695,9.7695,9.7695,9.7695,9.7695,9.7695,9.7695,9.7695,9.7695,9.7695,9.7695,9.7695,9.7695,9.7695,9.7695,9.7695,7.8146,7.9174,7.9404,8.0355,7.9113,7.6885,7.3805,7.1858,7.0078,6.7773,6.7109,6.6914,6.6914,6.8515,7.0273,7.1758,7.5156,7.8398,8.0664,8.3912,8.6663,8.83,9.0323,9.2146,9.3698,9.4317,9.5206,9.6706,9.6783,9.6783,9.6783,9.6783,9.6783,9.6783,9.6783,9.6783,9.6783,9.6783,9.6783,9.6783,9.6783,9.6783,9.6783,9.6783,9.6783,9.6783,9.6783,9.6783,9.686,9.7441,9.7673,9.775,9.8292,9.8678,9.8911,9.8911,9.9104,9.9181,9.8399,9.8128,9.7973,9.7151,9.6898,9.6953,9.6953,9.7143,9.7403,9.7563,9.7602,9.7656,9.7695,9.7695,9.7695,9.7695,9.7695,9.7851,9.8476,9.8594,9.875,9.9375,9.8984,9.8594,9.8594,9.8086,9.7695,9.7695,9.7695,9.7695,9.7695,9.7695,9.7695,9.7695,9.7695,9.7695,9.7695,9.7695,9.7695,9.7695,9.7695,9.7695,9.7695,9.7695,9.7695,9.7695,9.7695,9.7695,9.7695,9.7695,9.7695,9.7695,9.7695,9.7695,7.5041,7.6157,7.6299,7.6883,7.6025,7.4312,7.1573,7.0347,6.9219,6.7305,6.6914,6.6914,6.6914,6.8281,6.9961,7.1719,7.4922,7.8085,8.0657,8.388,8.6949,8.9508,9.1592,9.3273,9.4549,9.4704,9.5284,9.6706,9.6783,9.6783,9.6783,9.6783,9.6783,9.6783,9.6783,9.6783,9.6783,9.6783,9.6783,9.6783,9.6783,9.6783,9.6783,9.6783,9.6783,9.6822,9.7131,9.7286,0.0,9.8214,9.8562,9.8601,9.9104,9.9491,9.98,9.98,9.9994,10.011,9.8949,9.8562,9.8369,9.717,9.6812,9.687,9.6898,9.7091,9.7303,9.7422,9.7558,9.7611,9.7656,9.7695,9.7695,9.7695,9.7695,9.7929,9.8828,9.8984,9.9258,10.0117,9.9844,9.9375,9.9062,9.8554,9.8086,9.7734,9.7695,9.7695,9.7689,9.7687,9.7689,9.7693,9.7695,9.7695,9.7695,9.7695,9.7695,9.7695,9.7695,9.7695,9.7695,9.7695,9.7695,9.7695,9.7695,9.7695,9.7695,9.7695,9.7695,9.7695,9.7695,9.7695,0.0,7.2656,7.2768,7.289,7.2305,7.1304,6.9687,6.875,0.0,6.707,6.6914,6.6914,6.6992,6.8359,7.0078,7.1875,7.5039,7.8237,8.0888,8.4263,8.7819,9.1638,9.3398,9.4626,9.5419,9.5506,9.5864,9.6744,9.6783,9.6783,9.6783,9.6783,9.6783,9.6783,9.6783,9.6783,9.6783,9.6783,9.6783,9.6783,9.6783,9.6783,9.6783,9.686,9.6899,9.6938,9.7827,9.8176,9.8253,9.9065,9.9413,9.9413,9.9452,9.9994,10.069,10.069,10.1193,10.1696,9.9916,9.9297,9.9027,9.7325,9.6783,9.6783,9.687,9.7043,9.7186,9.7266,9.7433,9.7558,9.7574,9.7656,9.7695,9.7695,9.7734,9.8047,9.8906,9.914,9.9453,10.0312,10.039,10.0117,9.9336,9.914,9.8789,9.7929,9.7772,9.7765,9.7721,9.7667,9.7689,9.7676,9.7691,9.7695,9.7695,9.7695,9.7695,9.7695,9.7695,9.7695,9.7695,9.7695,9.7695,9.7695,9.7773,9.7812,9.789,9.7812,9.7773,9.7773,9.7734,9.7695,6.6669,0.0,6.9607,7.0935,7.0622,6.9725,0.0,6.8359,6.7969,6.707,6.6914,6.7109,6.7773,6.9258,7.1172,7.3594,7.6319,7.9455,8.3269,8.7789,9.1192,9.2664,9.3707,9.4626,9.5429,9.5477,9.5864,9.6744,9.6783,9.6783,9.6783,9.6783,9.6783,9.6783,9.6783,9.6783,9.6783,9.6783,9.6783,9.6783,9.6783,9.6783,9.6822,9.7479,9.7789,9.7827,9.8678,9.9027,9.9104,9.9955,10.0303,10.038,10.0999,10.1386,10.158,10.158,10.1696,10.1696,9.9916,9.9297,9.9027,9.7325,9.6783,9.6783,9.6812,9.6898,9.6993,9.7204,9.7246,9.7338,9.7485,9.7589,9.7648,9.7687,9.8201,9.8945,9.9799,10.0505,10.121,10.2103,10.1794,10.1211,10.1015,10.039,9.9685,9.8838,9.8704,9.8419,9.7739,9.7622,9.7602,9.7604,9.7656,9.7715,9.7695,9.7695,9.7695,9.7695,9.7695,9.7695,9.7695,9.7695,9.7695,9.7695,9.8359,9.9023,9.9687,9.9023,9.8672,9.8672,9.8008,9.7695,6.4958,6.625,6.7265,6.8633,6.8594,6.8125,6.7695,6.7617,6.7461,6.6992,6.7226,6.7773,6.8633,7.0508,7.2734,7.5351,7.7933,8.1194,8.5704,8.9973,9.2857,9.3553,9.4704,9.5632,9.6048,9.6125,9.628,9.6744,9.6783,9.6783,9.6783,9.6783,9.6783,9.6783,9.6783,9.6783,9.6783,9.6783,9.6783,9.6783,9.6783,9.7015,9.7402,9.7866,9.8292,9.8717,9.9529,9.9916,9.9955,10.0806,10.1193,10.1193,10.1696,10.1889,10.1889,10.1889,10.158,10.1115,9.9762,9.8794,9.8021,9.7092,9.7054,9.7402,9.7402,9.7664,9.7877,9.7212,9.7137,9.7245,9.7316,9.7472,9.7558,9.7636,9.8007,9.8721,9.9966,10.0601,10.1312,10.2587,10.2519,10.2097,10.1589,10.1199,10.0484,9.9641,9.9514,9.9289,9.8758,9.8747,9.8747,9.8773,9.8799,9.8716,9.8316,9.8281,9.8125,9.7734,9.7695,9.7695,9.7695,9.8086,9.8476,9.8906,9.9375,9.9844,10.0312,9.9414,9.8984,9.8984,9.8125,9.7695,6.4803,6.5664,6.6055,6.7187,6.7383,6.7305,6.7461,6.7383,6.7265,6.7265,6.7969,6.8906,6.9883,7.2187,7.4765,7.7371,8.0221,8.3599,8.7859,9.1301,9.3543,9.4046,9.5584,9.6551,9.6435,9.6512,9.659,9.659,9.6706,9.6822,9.6792,9.6753,9.6753,9.6753,9.6753,9.6753,9.6753,9.6783,9.6783,9.6753,9.6753,9.7217,9.8068,9.8184,9.8687,9.9537,10.0419,10.0806,10.0883,10.158,10.1889,10.1889,10.1889,10.1889,10.1889,10.1889,10.1309,10.0496,9.9452,9.8098,9.6822,9.6976,9.7518,9.8137,9.8253,9.8756,9.9027,9.7683,9.7406,9.7493,9.7393,9.7497,9.7656,9.7565,9.7772,9.838,9.9866,10.0412,10.0997,10.249,10.2802,10.2607,10.1796,10.1709,10.1417,10.0385,10.0317,10.0198,10.0007,10.0003,10.0107,10.0112,10.0217,9.9914,9.9242,9.9216,9.8867,9.8125,9.7851,9.7773,9.789,9.875,9.9609,10.0508,10.0508,10.0586,10.0703,9.9687,9.9219,9.9179,9.8164,9.7695,6.4881,6.6133,6.7265,6.9531,6.957,6.9219,6.9961,6.9531,6.9023,6.9023,6.9726,7.082,7.2422,7.4844,7.7438,8.0014,8.4227,8.7654,8.9049,9.2053,9.3891,9.3263,9.4694,9.539,9.4655,9.5274,9.57,9.57,9.6396,9.6792,9.6731,9.6731,9.6661,9.6525,9.6525,9.6525,9.6525,9.6723,9.6753,9.6731,9.6731,9.7124,9.7876,9.867,9.9513,10.0402,10.1278,10.1696,10.1696,10.1812,10.1889,10.1889,10.1889,10.1889,10.1889,10.1889,10.1309,10.038,9.8833,9.7634,9.6938,9.7673,9.7982,9.8214,9.8911,9.922,9.9259,9.8988,9.8999,9.8917,9.8284,9.8253,9.816,9.7515,9.8517,9.9693,9.9981,10.1221,10.2318,10.2577,10.2624,10.2607,10.2491,10.2421,10.2106,10.121,10.1117,10.0784,10.0008,9.991,9.9947,10.0005,10.0112,10.0187,10.0098,10.0115,10.0,9.9922,9.8515,9.8047,9.8789,9.9648,10.0508,10.1406,10.1406,10.1797,10.25,10.0898,10.0117,10.0117,9.8437,9.7695,6.5038,6.6914,6.8866,7.1395,7.1431,7.0885,7.1275,7.1041,7.0773,7.0781,7.1836,7.3281,7.5078,7.7517,8.0396,8.3854,8.7375,8.9809,9.0069,9.2146,9.3485,9.3031,9.4075,9.4617,9.423,9.5004,9.5506,9.5506,9.6289,9.6731,9.6699,9.6629,9.6564,9.6492,9.6492,9.6492,9.6492,9.6558,9.6629,9.6597,9.6597,9.7259,9.8537,9.8957,9.9878,10.1114,10.1611,10.1832,10.1787,10.1787,10.1819,10.1889,10.1889,10.1889,10.1812,10.0806,10.0187,9.9645,9.7982,9.7441,9.7557,9.7982,9.8717,9.9529,9.9878,10.0303,10.069,10.069,10.0093,9.9299,9.8995,9.9008,9.8986,9.862,9.9189,9.995,10.0417,10.1195,10.1915,10.2401,10.2594,10.2591,10.2607,10.2495,10.2401,10.2012,10.1812,10.1612,10.119,10.1193,10.1293,10.1416,10.1503,10.1388,10.0996,10.1013,10.0781,10.0312,9.9531,9.9492,10.039,10.0781,10.1406,10.2304,10.2304,10.25,10.289,10.1211,10.0312,10.0312,9.8515,9.7695,6.5077,6.7305,6.9764,7.2544,7.3023,7.2892,7.3055,7.325,7.3381,7.3459,7.4837,7.6481,7.8083,8.0631,8.3671,8.7292,8.9543,9.0873,9.096,9.2173,9.2971,9.2721,9.3418,9.3921,9.3921,9.4694,9.5274,9.5438,9.6228,9.6699,9.6597,9.6531,9.6497,9.6463,9.6463,9.6463,9.6463,9.6463,9.6463,9.6497,9.669,9.7577,9.9046,9.9274,10.02,10.1588,10.1624,10.1581,10.1688,10.1722,10.1793,10.1896,10.1889,10.1889,10.1696,10.0187,9.9491,9.9143,9.7827,9.7711,9.8176,9.8562,9.9529,10.0613,10.0806,10.1386,10.1889,10.1889,10.0991,9.9929,9.9735,9.9743,9.9811,9.9617,9.9745,10.0104,10.0803,10.1184,10.1501,10.2195,10.2381,10.2479,10.242,10.2401,10.2401,10.2395,10.2288,10.2279,10.2303,10.2311,10.2399,10.2513,10.2698,10.249,10.2019,10.1913,10.1601,10.1015,10.0703,10.0898,10.1601,10.1797,10.2187,10.289,10.289,10.2812,10.2617,10.1094,10.0195,9.9961,9.8437,9.7695,6.4922,6.6875,6.9022,7.2427,7.439,7.5647,7.6465,7.7206,7.7763,7.7841,7.9213,8.0738,8.1747,8.4635,8.7448,8.9236,9.0197,9.096,9.1631,9.2468,9.2721,9.1909,9.2567,9.3108,9.3108,9.3804,9.4588,9.5347,9.6197,9.6635,9.6429,9.6429,9.6358,9.6325,9.6288,9.6288,9.6288,9.6288,9.6361,9.6394,9.7241,9.8053,9.8865,9.9709,10.0593,10.1479,10.1588,10.1585,10.1585,10.1688,10.1683,10.1716,10.1896,10.1889,10.1812,10.0883,9.9994,9.9297,9.9181,9.8678,9.8369,9.9916,10.0496,10.0806,10.158,10.1889,10.1889,10.1889,10.1812,10.1502,10.069,10.0596,10.0384,9.9609,10.0119,10.0689,10.0805,10.1491,10.1995,10.2112,10.2073,10.2203,10.2215,10.2177,10.2201,10.2288,10.219,10.21,10.219,10.2215,10.2288,10.2421,10.2592,10.2694,10.2811,10.2812,10.2812,10.2695,10.1992,10.1484,10.1601,10.2383,10.2812,10.289,10.289,10.25,10.1719,10.0781,9.9883,9.9062,9.8125,9.7695,6.5781,6.8008,7.0272,7.2661,7.5248,7.7336,7.7711,7.8442,7.9181,7.9787,8.1282,8.2897,8.4395,8.6948,8.9017,8.9547,9.0686,9.1578,9.1747,9.2042,9.2064,9.1754,9.1986,9.2412,9.2953,9.3727,9.4549,9.5347,9.6133,9.6531,9.6394,9.6361,9.6325,9.6288,9.6288,9.6288,9.6288,9.6788,9.7057,9.7092,9.7402,9.8287,9.9596,9.9981,10.0634,10.1366,10.1366,10.1518,10.1514,10.1585,10.1693,10.1683,10.1819,10.1889,10.1812,10.0883,10.038,9.9994,9.9491,9.9452,9.9762,10.038,10.0999,10.1502,10.1812,10.1889,10.1889,10.1889,10.1889,10.1812,10.1502,10.0991,10.0596,10.0209,9.9977,10.0006,10.0587,10.1032,10.1409,10.1913,10.2096,10.2085,10.2073,10.21,10.21,10.2203,10.2085,10.2096,10.2073,10.2203,10.2303,10.2401,10.2581,10.2788,10.289,10.289,10.289,10.289,10.2617,10.2383,10.2383,10.2695,10.289,10.289,10.2383,10.1914,10.1601,10.0195,9.9336,9.8984,9.8125,9.7695,6.6286,6.8505,7.0796,7.3023,7.5702,7.8126,7.9252,8.0331,8.1286,8.1971,8.3701,8.5536,8.7027,8.8895,9.0141,8.9993,9.1074,9.1912,9.1759,9.1744,9.1716,9.1716,9.1716,9.2141,9.3263,9.3853,9.4635,9.5663,9.6184,9.6463,9.6358,9.6325,9.6288,9.6288,9.6288,9.6288,9.6288,9.7096,9.7634,9.7904,9.8173,9.8942,10.0096,10.0404,10.0789,10.1289,10.1289,10.1404,10.1404,10.1514,10.162,10.1683,10.1819,10.1889,10.1812,10.1193,10.0806,10.0613,10.0187,10.0303,10.0613,10.0883,10.1386,10.1889,10.1889,10.1889,10.1812,10.158,10.1502,10.1386,10.1193,10.0806,10.0496,10.0303,9.9723,9.9452,10.011,10.0209,10.0509,10.14,10.1584,10.1719,10.2018,10.2096,10.2096,10.2085,10.199,10.2,10.2096,10.2112,10.2201,10.2401,10.2694,10.2797,10.289,10.289,10.289,10.289,10.289,10.289,10.289,10.289,10.2812,10.25,10.1914,10.1289,10.0781,9.957,9.8867,9.8594,9.7969,9.7695,6.6184,6.807,7.0169,7.3581,7.5752,7.7935,8.1325,8.3402,8.461,8.4728,8.6839,8.8948,8.9767,9.0492,9.0946,9.0711,9.1378,9.1838,9.1744,9.1716,9.1716,9.1716,9.1716,9.2373,9.4037,9.4171,9.4775,9.6377,9.6463,9.6358,9.6288,9.6288,9.6288,9.6288,9.6288,9.6288,9.6288,9.7096,9.7942,9.8788,9.9673,10.0096,10.0096,10.0904,10.1289,10.1289,10.1289,10.1289,10.1289,10.1404,10.1588,10.1683,10.1819,10.1889,10.1889,10.1889,10.1309,10.069,10.158,10.1309,10.0806,10.158,10.1889,10.1889,10.1889,10.1889,10.1696,10.0806,10.0613,10.038,9.9529,9.9916,10.038,9.9491,9.9297,9.9297,9.9297,9.9297,9.9568,10.038,10.0613,10.0914,10.1817,10.201,10.2,10.2123,10.199,10.201,10.201,10.2096,10.219,10.2596,10.2686,10.2816,10.289,10.289,10.289,10.289,10.289,10.289,10.289,10.289,10.25,10.1601,10.1601,10.0703,9.8984,9.8984,9.8554,9.7695,9.7695,9.7695,7.0405,7.2057,0.0,7.6295,7.8365,8.0092,8.1728,8.2974,8.4428,8.6891,8.8048,8.8867,8.9566,9.0323,9.0802,9.0656,9.1282,9.1786,9.1716,9.1716,9.1716,9.1716,9.1716,9.2373,9.4037,9.4171,9.4775,9.6377,9.6463,9.6358,9.6288,9.6288,9.6288,9.6288,9.6288,9.6288,9.6288,9.7711,9.8519,9.8827,10.0289,10.0904,10.0981,10.1212,10.1289,10.1289,10.1289,10.1289,10.1289,10.1404,10.1588,10.1683,10.1716,10.1787,10.1812,10.1193,10.1193,10.1502,10.1077,10.1193,10.1502,10.1077,10.0999,10.0883,10.0303,10.011,9.9994,9.9762,9.9684,9.9491,9.8678,9.864,9.8794,9.8524,9.7982,9.7711,9.833,9.8446,9.8717,9.9529,10.0187,10.069,10.0991,10.1494,10.1912,10.1989,10.1912,10.2019,10.2068,10.219,10.2295,10.2596,10.2686,10.2816,10.289,10.289,10.289,10.289,10.289,10.289,10.289,10.2304,10.1914,10.1601,10.039,9.9531,9.8984,9.8398,9.7969,9.7695,9.7695,9.7695,7.2086,7.3971,7.5556,7.8375,8.0183,8.177,8.3699,8.4561,8.5721,8.8494,8.9311,8.9771,9.0453,9.0974,9.1238,9.1127,9.1463,9.1798,9.1716,9.1716,9.1716,9.1716,9.1716,9.2373,9.4008,9.4111,9.4711,9.6343,9.6394,9.6361,9.6288,9.6288,9.6288,9.6288,9.6596,9.6788,9.6788,9.8481,9.9327,9.9327,10.0712,10.1289,10.1289,10.1289,10.1289,10.1289,10.1289,10.1289,10.1289,10.1404,10.1514,10.1581,10.1688,10.16,10.1316,10.0806,10.069,10.0806,10.0303,10.038,10.0806,10.0303,10.011,9.9994,9.9452,9.9297,9.922,9.8911,9.8833,9.864,9.7789,9.7595,9.7595,9.7595,9.717,9.6938,9.7479,9.7595,9.7827,9.8678,9.9529,10.0187,10.0496,10.1309,10.1889,10.1889,10.1889,10.1912,10.2096,10.2201,10.2399,10.2576,10.271,10.2816,10.289,10.289,10.2812,10.2383,10.2383,10.2187,10.1914,10.1719,10.1289,10.0586,9.9531,9.8828,9.8476,9.7969,9.7695,9.7695,9.7695,9.7695,7.2412,7.4826,7.6943,8.0165,8.1678,8.3252,8.6644,8.7479,8.7994,8.9664,9.0501,9.119,9.1936,9.2037,9.1936,9.1786,9.1786,9.1798,9.1716,9.1716,9.1687,9.1649,9.1649,9.2316,9.3956,9.4017,9.4685,9.6278,9.6361,9.6288,9.6288,9.6288,9.6326,9.6403,9.7134,9.7557,9.7634,9.925,10.0096,10.0096,10.0904,10.1289,10.1289,10.1289,10.1289,10.1289,10.1289,10.1289,10.1289,10.1366,10.1518,10.1479,10.1616,10.1219,10.0485,10.0504,9.9994,9.9297,9.922,9.9259,9.9297,9.922,9.9181,9.9181,9.9104,9.9065,9.8911,9.8176,9.7982,9.7789,9.7015,9.6783,9.6783,9.6783,9.6783,9.6783,9.6783,9.6783,9.7015,9.7827,9.8717,9.9568,10.0303,10.1309,10.1889,10.1889,10.1889,10.1912,10.2096,10.2215,10.2399,10.2585,10.2694,10.2783,10.2812,10.2812,10.2383,10.1484,10.1484,10.1094,10.0195,10.0898,10.0703,9.914,9.9023,9.8594,9.7812,9.7812,9.7773,9.7695,9.7695,9.7695,7.598,7.88,8.1077,8.3154,8.4402,8.566,8.7766,8.8784,8.9547,9.0495,9.0753,9.1035,9.1721,9.1863,9.1812,9.1705,9.1744,9.1716,9.1629,9.1629,9.1561,9.15,9.1462,9.2126,9.3862,9.3957,9.4617,9.6278,9.6361,9.6288,9.6288,9.6288,9.6596,9.7211,9.7403,9.7827,9.8519,9.9558,10.0096,10.0096,10.0904,10.1289,10.1289,10.1289,10.1289,10.1289,10.1289,10.1289,10.1289,10.1289,10.1404,10.1479,10.1624,10.1191,10.0369,9.9808,9.9452,9.922,9.8601,9.8756,9.922,9.8562,9.8369,9.8214,9.7557,9.7325,9.7286,9.7131,9.7092,9.7054,9.686,9.6783,9.6783,9.6783,9.6783,9.6783,9.6783,9.6783,9.686,9.7054,9.8292,9.9375,9.9568,10.0883,10.1889,10.1889,10.1889,10.1912,10.2096,10.2201,10.2381,10.2585,10.2685,10.2605,10.1914,10.1914,10.1484,10.0586,10.0586,10.0195,9.9336,9.9453,9.9687,10.0,9.9336,9.8906,9.8711,9.8711,9.8359,9.7695,9.7695,9.7695,7.5106,7.8198,8.0825,8.3787,8.5894,8.7531,8.8811,8.9755,9.054,9.127,9.1411,9.1475,9.1759,9.1771,9.1732,9.1716,9.1716,9.1687,9.16,9.16,9.157,9.14,9.14,9.2062,9.3764,9.3924,9.4583,9.6207,9.6325,9.648,9.6865,9.6865,9.725,9.8096,9.8519,9.8942,9.9404,10.0289,10.0712,10.0712,10.0712,10.0481,10.0096,10.0904,10.1289,10.1289,10.1289,10.1289,10.1289,10.1289,10.1328,10.1404,10.1475,10.0887,9.9796,9.9429,9.8794,9.806,9.7634,9.775,9.8021,9.7595,9.7479,9.7402,9.6938,9.7092,9.7402,9.7402,9.7711,9.7905,9.7518,9.7402,9.7325,9.6899,9.6783,9.6783,9.6783,9.6783,9.6783,9.6783,9.8137,9.9297,9.9297,10.069,10.1889,10.1889,10.1889,10.1912,10.199,10.219,10.23,10.2495,10.2722,10.2392,10.1601,10.1601,10.1094,9.9765,9.9687,9.9297,9.8398,9.8789,9.9219,9.9687,9.9648,9.9414,9.8984,9.8984,9.8554,9.7695,9.7695,9.7695,7.3027,7.6786,8.0165,8.3881,8.6678,8.8728,8.9579,9.0352,9.1074,9.1824,9.1954,9.1928,9.1798,9.1744,9.1716,9.1716,9.1716,9.1659,9.16,9.157,9.15,9.1368,9.149,9.2184,9.3735,9.3971,9.4667,9.6172,9.6288,9.6634,9.7442,9.7519,9.798,9.8981,9.9712,10.0173,10.0289,10.1019,10.1289,10.1289,10.0481,9.9635,9.8865,10.0212,10.1019,10.1096,10.1212,10.1289,10.1289,10.1289,10.1289,10.1289,10.1398,10.0505,9.9111,9.9081,9.8137,9.6783,9.6783,9.6783,9.6822,9.6976,9.6938,9.686,9.7131,9.7634,9.8137,9.8292,9.8794,9.9143,9.8485,9.833,9.8098,9.7247,9.7015,9.6976,9.6822,9.6783,9.6783,9.6783,9.8137,9.9413,9.9723,10.0883,10.1889,10.1889,10.1889,10.1881,10.201,10.2112,10.2288,10.2401,10.2592,10.2412,10.1599,10.1601,10.0898,9.9336,9.9219,9.8906,9.8164,9.8984,9.9375,9.9219,10.0117,10.0117,9.9219,9.9219,9.8711,9.7695,9.7695,9.7695,7.3016,7.8962,8.4046,8.5375,8.7107,8.8713,8.9508,9.0262,9.1013,9.1759,9.1875,9.1798,9.1744,9.1716,9.1716,9.1716,9.1659,9.16,9.1431,9.1374,9.1308,9.1245,9.1899,9.2707,9.3669,9.4439,9.5249,9.6249,9.6288,9.6634,9.7442,9.7519,9.825,9.9865,9.9981,10.0404,10.1096,10.1212,10.1289,10.1289,10.0481,9.9635,9.8788,9.9019,9.9558,10.0289,10.1019,10.1289,10.1289,10.1289,10.1404,10.1402,10.0701,9.9922,9.9095,9.8493,9.7634,9.6783,9.6783,9.6783,9.6938,9.7673,9.7402,9.7054,9.8524,9.8562,9.8253,9.8949,9.922,9.9297,9.9181,9.9143,9.8949,9.8137,9.7943,9.7711,9.6976,9.6783,9.6783,9.6783,9.8137,9.98,10.1309,10.1696,10.1889,10.1889,10.1889,10.1881,10.201,10.2112,10.2303,10.2401,10.2591,10.2386,10.1586,10.1599,10.1211,10.0195,10.0117,10.0117,9.9961,10.0781,10.0898,10.0117,10.1015,10.1015,10.0117,10.0117,9.9297,9.7695,9.7695,9.7695,7.1901,7.7973,8.2723,8.4104,8.6467,8.8662,8.9463,9.0596,9.154,9.1848,9.1821,9.1705,9.1716,9.1716,9.1716,9.1716,9.1659,9.157,9.14,9.1336,9.1275,9.121,9.1979,9.2826,9.3633,9.448,9.5557,9.6865,9.698,9.7557,9.8904,9.8942,9.9519,10.0712,10.0789,10.0904,10.1289,10.1289,10.1096,10.0596,9.975,9.8904,9.8096,9.8596,9.9288,10.0096,10.0481,10.0904,10.1289,10.1289,10.1366,10.1479,10.1203,10.0612,9.9867,9.9615,9.864,9.7518,9.7518,9.7209,9.6938,9.7827,9.7827,9.775,9.8949,9.9375,9.9568,9.9916,10.038,10.0613,10.0187,9.9994,9.9839,9.8988,9.8756,9.8678,9.8292,9.7479,9.7092,9.8021,9.8794,9.9839,10.158,10.1889,10.1889,10.1889,10.1889,10.192,10.1912,10.2096,10.219,10.2317,10.2499,10.2319,10.1593,10.1595,10.1211,10.039,10.0312,10.0312,10.0312,10.1094,10.1211,10.0312,10.1211,10.0898,9.957,9.957,9.8945,9.7695,9.7695,9.7695,7.0715,7.6037,8.0221,8.2168,8.5205,8.7978,8.9002,9.0496,9.1695,9.1848,9.1793,9.1716,9.1716,9.1716,9.1716,9.1687,9.1591,9.15,9.1368,9.1341,9.1318,9.1518,9.2287,9.3133,9.3941,9.4826,9.5942,9.7403,9.7519,9.825,9.9981,10.0096,10.0481,10.1289,10.1289,10.1289,10.1289,10.1289,10.0904,10.0096,9.9442,9.8673,9.7865,9.8481,9.9288,10.0096,10.0289,10.0712,10.1289,10.1289,10.1404,10.1478,10.128,10.0998,10.0479,10.0272,9.9491,9.8408,9.8408,9.7982,9.7595,9.8446,9.8601,9.8601,9.9645,10.0303,10.0613,10.0883,10.1386,10.1812,10.1077,10.0883,10.069,9.9839,9.9645,9.9568,9.9336,9.833,9.7866,9.9336,9.9645,10.011,10.158,10.1889,10.1889,10.1889,10.1889,10.1889,10.1889,10.2,10.2177,10.2327,10.2516,10.2413,10.1913,10.1905,10.1719,10.1015,10.1015,10.1015,10.1015,10.1406,10.1211,10.0312,10.0703,10.0312,9.8984,9.8984,9.8554,9.7695,9.7695,9.7812,6.9811,7.3952,7.778,8.0314,8.3408,8.6282,8.7912,8.9465,9.0818,9.1655,9.1754,9.1716,9.1716,9.1716,9.1687,9.1629,9.15,9.1368,9.1308,9.1241,9.1518,9.2326,9.3133,9.398,9.4826,9.5711,9.6596,9.7442,9.7519,9.825,9.9981,10.0096,10.0481,10.1289,10.1289,10.1289,10.1289,10.1289,10.0904,10.0096,10.0096,9.9558,9.8711,9.8788,9.9288,10.0096,10.0904,10.1289,10.1289,10.1289,10.1404,10.1508,10.0698,10.0491,10.0496,9.9684,9.9297,9.9259,9.9259,9.922,9.9297,10.0187,9.9916,9.9568,10.1309,10.1193,10.0806,10.158,10.1889,10.1889,10.1812,10.1812,10.158,10.069,10.0496,10.0303,9.9491,9.922,9.9452,10.038,10.0496,10.0806,10.1696,10.1889,10.1889,10.1889,10.1889,10.1889,10.1889,10.2,10.2177,10.2327,10.2516,10.2607,10.2703,10.2803,10.2812,10.2812,10.2812,10.2812,10.2812,10.1992,10.1211,10.0312,9.9531,9.9101,9.8984,9.8984,9.8554,9.7695,9.7695,9.8125,6.7261,7.0865,7.4411,7.7532,8.0805,8.3873,8.6103,8.8223,8.9978,9.0865,9.1406,9.187,9.2451,9.2035,9.1629,9.16,9.1438,9.1341,9.1308,9.1241,9.1518,9.2402,9.321,9.4018,9.4903,9.5788,9.6865,9.8211,9.8327,9.9096,10.0789,10.0904,10.1019,10.1289,10.1289,10.1289,10.1289,10.1289,10.1212,10.0904,10.0289,9.9942,9.9635,9.9635,9.9788,10.0096,10.0981,10.1289,10.1289,10.1289,10.1404,10.1585,10.1315,10.1302,10.1386,10.1115,10.0613,10.011,10.011,9.9762,9.9452,10.0303,10.038,10.038,10.1502,10.1696,10.1502,10.1812,10.1889,10.1889,10.1889,10.1889,10.1812,10.1502,10.1386,10.1309,10.0999,10.011,9.9568,10.038,10.0613,10.0883,10.1696,10.1889,10.1889,10.1889,10.1889,10.1889,10.1889,10.2,10.2177,10.2327,10.2516,10.2685,10.282,10.2882,10.289,10.289,10.289,10.2617,10.2109,10.1797,10.0898,9.9492,9.914,9.8711,9.8164,9.8164,9.8008,9.7695,9.7695,9.8164,6.5072,6.8144,7.1182,7.4028,7.746,8.0806,8.3351,8.6054,8.843,8.9859,9.0759,9.161,9.2731,9.2141,9.1647,9.1917,9.1599,9.1308,9.1275,9.1245,9.1633,9.2787,9.3364,9.4172,9.5326,9.5942,9.6865,9.825,9.8634,9.9404,10.0789,10.1212,10.1289,10.1289,10.1289,10.1289,10.1289,10.1289,10.1289,10.1289,10.0789,10.0481,10.0481,10.0481,10.0481,10.0481,10.1096,10.1289,10.1289,10.1289,10.1366,10.1627,10.1624,10.1727,10.1819,10.1889,10.1502,10.0999,10.0999,10.069,10.0303,10.0806,10.0999,10.1077,10.1696,10.1889,10.1889,10.1889,10.1889,10.1889,10.1889,10.1889,10.1889,10.1889,10.1889,10.1889,10.1889,10.0999,10.0303,10.0883,10.0999,10.1193,10.1812,10.1889,10.1889,10.1889,10.1889,10.1889,10.1889,10.2,10.2177,10.2327,10.2516,10.2685,10.282,10.2882,10.289,10.289,10.2617,10.2187,10.1601,10.1015,10.0195,9.9023,9.8711,9.8281,9.7695,9.7695,9.7695,9.7695,9.7695,9.832,0.0,0.0,0.0,7.0006,7.3533,7.727,7.9815,8.3,8.6122,8.8571,8.9831,9.0963,9.2527,9.208,9.1747,9.2634,9.1952,9.1275,9.121,9.121,9.1864,9.348,9.371,9.4403,9.6134,9.6288,9.6634,9.7442,9.8288,9.9135,10.0096,10.0904,10.1289,10.1289,10.1289,10.1289,10.1289,10.1289,10.1289,10.1289,10.1289,10.1289,10.1289,10.1289,10.1289,10.1289,10.1289,10.1289,10.1289,10.1289,10.1404,10.1479,10.1588,10.1616,10.1683,10.1896,10.1889,10.1889,10.1889,10.1889,10.1889,10.1889,10.1889,10.1889,10.1889,10.1889,10.1889,10.1889,10.1889,10.1889,10.1889,10.1889,10.1889,10.1889,10.1889,10.1889,10.1889,10.1889,10.1889,10.1889,10.1889,10.1889,10.1889,10.1889,10.1889,10.1889,10.1889,10.1889,10.1889,10.2,10.2177,10.2288,10.2516,10.2685,10.282,10.2882,10.289,10.289,10.2109,10.1601,10.1484,9.9883,9.8984,9.8945,9.8125,9.7695,9.7695,9.7695,9.7695,9.7695,9.7734,9.8633,6.3169,0.0,0.0,0.0,0.0,0.0,7.7192,8.0805,8.4184,8.6103,8.8566,9.0883,9.2527,9.2518,9.2729,9.4193,9.2623,9.1245,9.121,9.1748,9.2518,9.3595,9.4249,9.5057,9.6211,9.6288,9.6634,9.7442,9.7711,9.8519,9.9981,10.0904,10.1289,10.1289,10.1289,10.1289,10.1289,10.1289,10.1289,10.1289,10.1289,10.1289,10.1289,10.1289,10.1289,10.1289,10.1289,10.1289,10.1289,10.1289,10.1404,10.1588,10.1624,10.1688,10.178,10.1889,10.1889,10.1889,10.1889,10.1889,10.1889,10.1889,10.1889,10.1889,10.1889,10.1889,10.1889,10.1889,10.1889,10.1889,10.1889,10.1889,10.1889,10.1889,10.1889,10.1889,10.1889,10.1889,10.1889,10.1889,10.1889,10.1889,10.1889,10.1889,10.1889,10.1889,10.1889,10.192,10.2019,10.2123,10.2201,10.2399,10.2596,10.2685,10.282,10.2882,10.2617,10.1992,10.1719,10.1015,9.9765,9.9258,9.8711,9.8086,9.7812,9.7695,9.7695,9.7695,9.7695,9.7734,9.8359,9.8906,6.3247,6.457,6.557,6.7121,0.0,0.0,7.4123,7.7775,8.1388,8.3459,8.6208,8.8837,9.0813,9.1104,9.1544,9.3239,9.1899,9.1018,9.2095,9.2672,9.3287,9.4134,9.4672,9.5326,9.6211,9.6288,9.648,9.698,9.7326,9.8096,9.9481,9.9981,10.0289,10.0289,10.0596,10.0789,10.0789,10.1096,10.1289,10.1289,10.1289,10.1289,10.1289,10.1289,10.1289,10.1289,10.1289,10.1289,10.1289,10.1404,10.1481,10.1627,10.162,10.1722,10.1819,10.1928,10.1889,10.1889,10.1889,10.1889,10.1889,10.1889,10.1889,10.1889,10.1889,10.1889,10.1889,10.1889,10.1889,10.1889,10.1889,10.1889,10.1889,10.1889,10.1889,10.1889,10.1889,10.1889,10.1889,10.1889,10.1889,10.1889,10.1889,10.1889,10.1889,10.1912,10.1912,10.1981,10.2096,10.219,10.2311,10.2381,10.2596,10.2702,10.2788,10.291,10.2695,10.2187,10.1484,10.0586,9.957,9.8828,9.8203,9.7695,9.7695,9.7695,9.7695,9.7695,9.7695,9.7734,9.8594,9.8984,6.3787,6.4554,6.5103,6.5297,6.7736,0.0,7.127,7.4727,7.8379,8.0705,8.3231,8.5678,8.7904,8.8457,8.9046,9.0671,9.0364,9.0787,9.321,9.3633,9.4018,9.4903,9.5095,9.5441,9.6211,9.6288,9.6288,9.6288,9.7057,9.7827,9.8596,9.875,9.8788,9.8788,9.9558,9.9981,10.0096,10.0789,10.1212,10.1289,10.1289,10.1289,10.1289,10.1289,10.1289,10.1289,10.1289,10.1289,10.1289,10.1481,10.1479,10.1516,10.1693,10.1683,10.1716,10.1896,10.1889,10.1889,10.1889,10.1889,10.1889,10.1889,10.1889,10.1889,10.1889,10.1889,10.1889,10.1889,10.1889,10.1889,10.1889,10.1889,10.1889,10.1889,10.1889,10.1889,10.1889,10.1889,10.1889,10.1889,10.1889,10.1889,10.1889,10.1889,10.1881,10.201,10.2,10.2096,10.219,10.2311,10.2399,10.2518,10.2612,10.2679,10.2787,10.2894,10.289,10.2812,10.1211,10.0312,10.0195,9.8554,9.7695,9.7695,9.7695,9.7695,9.7695,9.7695,9.7695,9.7734,9.8476,9.8867,6.5216,6.5277,6.5219,0.0,0.0,0.0,7.0989,7.4108,7.7014,7.8201,8.1001,8.354,8.4657,8.5889,8.7291,8.8986,8.9636,9.0559,9.2479,9.3287,9.4018,9.4903,9.5634,9.6095,9.6288,9.6288,9.6288,9.6288,9.7057,9.7557,9.775,9.8404,9.8788,9.8788,9.8942,9.9365,10.0096,10.0289,10.0712,10.1289,10.1289,10.1289,10.1289,10.1289,10.1289,10.1289,10.1289,10.1289,10.1289,10.1478,10.1588,10.1624,10.1727,10.1793,10.1896,10.1889,10.1889,10.1889,10.1889,10.1889,10.1889,10.1889,10.1889,10.1889,10.1889,10.1889,10.1889,10.1889,10.1889,10.1889,10.1889,10.1889,10.1889,10.1889,10.1889,10.1889,10.1889,10.1889,10.1889,10.1889,10.1889,10.1889,10.1889,10.1912,10.201,10.201,10.2085,10.2215,10.2295,10.2417,10.2499,10.2616,10.2694,10.2801,10.291,10.2917,10.2617,10.1914,10.0898,10.0,9.9297,9.8242,9.7695,9.7695,9.7695,9.7695,9.7695,9.7695,9.7695,9.7695,9.7851,9.7969,0.0,0.0,0.0,6.7834,0.0,0.0,0.0,7.1979,7.392,7.4417,7.649,7.8476,7.9327,8.0751,8.2361,8.4066,8.4993,8.6411,8.8944,9.1518,9.3403,9.4249,9.4749,9.5172,9.5595,9.5249,9.5018,9.5018,9.5788,9.6249,9.6249,9.7096,9.7557,9.7557,9.7942,9.8557,9.9442,9.9865,10.0481,10.1289,10.1289,10.1289,10.1289,10.1289,10.1289,10.1289,10.1289,10.1289,10.1289,10.1514,10.1585,10.1585,10.1683,10.1819,10.1889,10.1889,10.1889,10.1889,10.1889,10.1889,10.1889,10.1889,10.1889,10.1889,10.1889,10.1889,10.1889,10.1889,10.1889,10.1889,10.1889,10.1889,10.1889,10.1889,10.158,10.1309,10.1309,10.0883,10.0613,10.0613,10.0604,10.0906,10.1796,10.1981,10.199,10.2087,10.219,10.2303,10.2518,10.2576,10.2591,10.2709,10.2803,10.291,10.291,10.2888,10.2695,10.2304,10.1406,10.0781,10.0312,9.9453,9.8789,9.8359,9.7929,9.7695,9.7695,9.7695,9.7695,9.7695,9.7695,9.7695,0.0,0.0,0.0,0.0,0.0,6.9717,0.0,0.0,0.0,7.1008,7.2213,7.3435,7.4154,7.5453,7.6983,7.8669,7.9614,8.1305,8.4676,8.7983,9.0787,9.2749,9.2979,9.3364,9.4403,9.4018,9.371,9.371,9.4518,9.498,9.498,9.5826,9.6288,9.6288,9.6942,9.775,9.8788,9.9481,10.0289,10.1289,10.1289,10.1289,10.1289,10.1289,10.1289,10.1289,10.1096,10.1212,10.1289,10.1321,10.1392,10.1585,10.1787,10.1889,10.1889,10.1889,10.1889,10.1889,10.1889,10.1889,10.1889,10.1889,10.1889,10.1889,10.1889,10.1889,10.1889,10.1889,10.1889,10.1889,10.1889,10.1812,10.158,10.158,10.0999,10.0303,10.0303,9.98,9.9297,9.9297,9.9357,9.9841,10.1313,10.1719,10.1906,10.2,10.2288,10.2473,10.2718,10.2694,10.2694,10.2801,10.2919,10.291,10.289,10.289,10.289,10.289,10.2109,10.1601,10.1601,10.0586,9.9726,9.9023,9.8125,9.7695,9.7695,9.7695,9.7695,9.7695,9.7695,9.7695,0.0,0.0,0.0,0.0,7.0206,0.0,0.0,0.0,7.0036,7.0057,0.0,7.1608,7.1686,0.0,0.0,7.5193,7.6082,7.7776,8.1214,8.1439,8.3495,8.9598,9.0329,9.0979,9.2633,9.3326,9.371,9.371,9.4518,9.498,9.498,9.5826,9.6288,9.6288,9.6403,9.7211,9.8788,9.8904,9.975,10.1289,10.1289,10.1289,10.1289,10.1289,10.1289,10.1289,10.0481,10.0596,10.1289,10.0704,10.0891,10.1585,10.1787,10.1889,10.1889,10.1889,10.1889,10.1889,10.1889,10.1889,10.1889,10.1889,10.1889,10.1889,10.1889,10.1889,10.1889,10.1889,10.1889,10.1889,10.1889,10.1309,10.069,10.069,10.011,9.9452,9.9452,9.9375,9.9297,9.9297,9.9357,9.9454,9.9648,10.0482,10.1184,10.1181,10.2109,10.2718,10.2686,10.2801,10.2815,10.288,10.2914,10.289,10.289,10.289,10.289,10.289,10.2109,10.1601,10.1601,10.0,9.9101,9.8984,9.8125,9.7695,9.7695,9.7695,9.7695,9.7695,9.7695,9.7695,0.0,0.0,0.0,0.0,0.0,0.0,6.9898,0.0,6.9146,0.0,0.0,0.0,0.0,0.0,0.0,0.0,7.2184,7.3168,7.56,7.5601,7.8077,8.5401,8.6252,8.6906,8.8632,9.0441,9.1095,9.0133,9.221,9.3557,9.3557,9.5288,9.6288,9.6288,9.6288,9.7096,9.8788,9.8788,9.9635,10.1289,10.1289,10.1289,10.1289,10.1289,10.1019,10.0596,10.0212,10.0289,10.0596,10.0396,10.0813,10.1585,10.1787,10.1889,10.1889,10.1889,10.1889,10.1889,10.1889,10.1889,10.1889,10.1889,10.1889,10.1889,10.1889,10.1889,10.1889,10.1889,10.1502,10.1077,10.1077,10.0496,9.9839,9.9839,9.922,9.8601,9.8601,9.8214,9.7866,9.7866,9.7915,9.7999,9.7999,9.9328,10.0395,10.0511,10.1305,10.1984,10.209,10.2515,10.2894,10.2917,10.2888,10.289,10.289,10.289,10.289,10.289,10.2617,10.2109,10.1601,10.039,9.9531,9.9023,9.8125,9.7695,9.7695,9.7695,9.7695,9.7695,9.7695,9.7695,7.7824,0.0,0.0,0.0,0.0,0.0,0.0,0.0,0.0,0.0,0.0,0.0,0.0,0.0,0.0,0.0,0.0,6.9821,7.1299,7.1321,7.3755,8.0692,8.2362,8.3484,0.0,8.7363,8.8556,8.7825,9.071,9.2595,9.2826,9.5057,9.6288,9.6288,9.6288,9.698,9.8442,9.8673,9.9519,10.1019,10.1212,10.1289,10.1289,10.1096,10.0712,10.0096,9.9596,9.9635,10.0096,10.001,10.0582,10.1585,10.1594,10.1502,10.1502,10.1502,10.1502,10.1502,10.1309,10.1309,10.158,10.1812,10.1696,10.1502,10.1502,10.1386,10.1193,10.1193,10.069,10.0187,10.0187,9.9607,9.8988,9.8988,9.833,9.775,9.775,9.7247,9.6783,9.6783,9.6898,9.6979,9.7006,9.8364,9.9541,9.9653,10.0489,10.1094,10.1209,10.1791,10.2304,10.25,10.25,10.2617,10.289,10.289,10.289,10.289,10.2695,10.2304,10.1601,10.0508,9.9648,9.9023,9.8125,9.7695,9.7695,9.7695,9.7695,9.7695,9.7695,9.7695,0.0,0.0,0.0,7.5938,0.0,0.0,0.0,0.0,6.7513,0.0,0.0,0.0,0.0,0.0,0.0,0.0,0.0,0.0,0.0,6.9053,7.0439,7.5617,7.9152,0.0,0.0,8.4747,8.6901,0.0,9.1018,9.2826,9.3633,9.5326,9.6288,9.6288,9.6288,9.6711,9.7519,9.8365,9.925,10.0096,10.0904,10.1289,10.1289,10.0481,10.0096,9.9981,9.8327,9.8519,10.0096,9.9393,10.008,10.1469,10.0898,10.0613,10.0613,10.0613,10.0613,10.0496,9.9684,9.9955,10.0806,10.158,10.1309,10.0613,10.0613,10.011,9.9375,9.9375,9.9375,9.9336,9.9336,9.8756,9.8137,9.8137,9.7479,9.6822,9.6822,9.6822,9.6783,9.6783,9.6841,9.6926,9.7006,9.7966,9.8782,9.8821,9.968,10.0301,10.0312,10.039,10.0703,10.1601,10.1601,10.1992,10.2812,10.289,10.289,10.289,10.2109,10.1601,10.1601,9.9961,9.9023,9.8984,9.8125,9.7695,9.7695,9.7695,9.7695,9.7695,9.7695,9.7695,0.0,0.0,7.8485,7.8515,0.0,0.0,0.0,0.0,0.0,0.0,0.0,0.0,0.0,0.0,0.0,0.0,0.0,0.0,0.0,0.0,6.8155,0.0,0.0,0.0,0.0,0.0,0.0,0.0,8.8709,0.0,9.2826,9.5057,9.6288,9.6288,9.6288,9.6673,9.748,9.7788,9.8673,10.0096,10.0404,10.0789,10.1289,10.1019,10.0596,10.0096,9.9481,9.9558,10.0096,9.99,10.0473,10.1508,10.0794,10.062,10.0496,9.9955,9.9723,9.9684,9.9413,9.9491,9.98,10.011,9.9994,9.9723,9.9723,9.9529,9.9297,9.9297,9.8911,9.8524,9.8524,9.7866,9.7247,9.7247,9.7015,9.6783,9.6783,9.6783,9.6783,9.6783,9.6898,9.6979,9.7057,9.7499,9.7847,9.7925,9.8791,9.9444,9.9453,9.9922,10.039,10.0703,10.1289,10.1719,10.1992,10.2617,10.2695,10.2109,10.1797,10.1094,9.9922,9.9297,9.8711,9.8164,9.7851,9.7695,9.7695,9.7695,9.7695,9.7695,9.7695,9.7695,8.5626,8.3548,0.0,8.1131,7.7977,0.0,7.5861,0.0,7.2685,0.0,0.0,0.0,0.0,0.0,0.0,0.0,0.0,0.0,0.0,6.6577,0.0,0.0,0.0,0.0,0.0,0.0,0.0,0.0,0.0,0.0,0.0,9.4634,9.5826,9.5826,9.6134,9.6557,9.7057,9.7365,9.8211,9.9635,9.9942,10.0481,10.1289,10.1019,10.0596,10.0096,9.975,9.9788,10.0096,10.021,10.082,10.1508,10.08,10.0395,9.9994,9.9181,9.8678,9.8446,9.8756,9.8872,9.8911,9.922,9.9104,9.8872,9.8872,9.8678,9.8408,9.8408,9.806,9.7634,9.7634,9.7209,9.6783,9.6783,9.6783,9.6783,9.6783,9.6783,9.6783,9.6783,9.6898,9.7006,9.7082,9.7245,9.7416,9.7527,9.8119,9.8546,9.8554,9.9023,9.9492,9.9804,10.0312,10.0898,10.1484,10.2383,10.25,10.1719,10.1289,10.0508,9.9062,9.8711,9.8281,9.7695,9.7695,9.7695,9.7695,9.7695,9.7695,9.7695,9.7695,9.7695]},{"header":{"parameterUnit":"m.s-1","parameterCategory":1,"la1":30.6,"la2":29.2853,"lo1":-89.7004,"lo2":-87.6739,"dx":0.0162,"dy":0.0183,"nx":112,"ny":82,"refTime":"2022-11-13T18:00:00:Z","depth":0,"parameterNumber":3,"parameterNumberName":"V-component_of_WINDS"},"data":[0.0,0.0,0.0,0.0,0.0,0.0,0.0,0.0,0.0,0.0,0.0,0.0,0.0,0.0,0.0,0.0,0.0,0.0,0.0,0.0,0.0,0.0,0.0,0.0,0.0,0.0,0.0,0.0,0.0,0.0,0.0,0.0,0.0,0.0,0.0,0.0,0.0,0.0,0.0,0.0,0.0,0.0,0.0,0.0,0.0,0.0,0.0,0.0,0.0,0.0,0.0,0.0,0.0,0.0,0.0,0.0,0.0,0.0,0.0,0.0,0.0,0.0,0.0,0.0,0.0,0.0,0.0,0.0,0.0,0.0,0.0,0.0,0.0,0.0,0.0,0.0,0.0,0.0,0.0,0.0,0.0,0.0,0.0,0.0,0.0,0.0,0.0,0.0,0.0,0.0,-0.1521,-0.081,-0.0852,-0.1308,-0.1869,-0.1541,-0.1491,-0.2083,0.0,0.0,0.0,0.0,0.0,0.0,0.0,0.0,0.0,0.0,0.0,0.0,0.0,0.0,0.0,0.0,0.0,0.0,0.0,0.0,0.0,0.0,0.0,0.0,0.0,0.0,0.0,0.0,0.0,0.0,0.0,0.0,0.0,0.0,0.0,0.0,0.0,0.0,0.0,0.0,0.0,0.0,0.0,0.0,0.0,0.0,0.0,0.0,0.0,0.0,0.0,0.0,0.0,0.0,0.0,0.0,0.0,0.0,0.0,0.0,0.0,0.0,0.0,0.0,0.0,0.0,0.0,0.0,0.0,0.0,0.0,0.0,0.0,0.0,0.0,0.0,0.0,0.0,0.0,0.0,0.0,0.0,0.0,0.0,0.0,0.0,0.0,0.0,0.0,0.0,0.0,0.0,0.0,0.0,0.0,0.0,0.0,0.0,0.0,0.0,0.0,0.0,0.0,0.0,-0.0769,-0.0141,-0.0144,-0.0292,-0.0291,-0.0852,-0.1519,-0.201,0.0,0.0,0.0,0.0,0.0,0.0,0.0,0.0,0.0,0.0,0.0,0.0,0.0,0.0,0.0,0.0,0.0,0.0,0.0,0.0,0.0,0.0,0.0,0.0,0.0,0.0,0.0,0.0,0.0,0.0,0.0,0.0,0.0,0.0,0.0,0.0,0.0,0.0,0.0,0.0,0.0,0.0,0.0,0.0,0.0,0.0,0.0,0.0,0.0,0.0,0.0,0.0,0.0,0.0,0.0,0.0,0.0,0.0,0.0,0.0,0.0,0.0,0.0,0.0,0.0,0.0,0.0,0.0,0.0,0.0,0.0,0.0,0.0,0.0,0.0,0.0,0.0,0.0,0.0,0.0,0.0,0.0,0.0,0.0,0.0,0.0,0.0,0.0,0.0,0.0,0.0,0.0,0.0,0.0,0.0,0.0,0.0,0.0,0.0,0.0,0.0,0.0,0.0,-0.0902,-0.0274,-0.0,0.0,0.0,0.0,-0.0288,-0.0699,-0.0944,-0.1602,0.0,0.0,0.0,0.0,0.0,0.0,0.0,0.0,0.0,0.0,0.0,0.0,0.0,0.0,0.0,0.0,0.0,0.0,0.0,0.0,0.0,0.0,0.0,0.0,0.0,0.0,0.0,0.0,0.0,0.0,0.0,0.0,0.0,0.0,0.0,0.0,0.0,0.0,0.0,0.0,0.0,0.0,0.0,0.0,0.0,0.0,0.0,0.0,0.0,0.0,0.0,0.0,0.0,0.0,0.0,0.0,0.0,0.0,0.0,0.0,0.0,0.0,0.0,0.0,0.0,0.0,0.0,0.0,0.0,0.0,0.0,0.0,0.0,0.0,0.0,0.0,0.0,0.0,0.0,0.0,0.0,0.0,0.0,0.0,0.0,0.0,0.0,0.0,0.0,0.0,0.0,0.0,0.0,0.0,0.0,0.0,0.0,0.0,0.0,0.0,0.0,0.0,-0.0688,0.0,0.0,0.0,0.0,0.0,0.0,0.0,0.0,-0.087,0.0,0.0,0.0,0.0,0.0,0.0,0.0,0.0,0.0,0.0,0.0,0.0,0.0,0.0,0.0,0.0,0.0,0.0,0.0,0.0,0.0,0.0,0.0,0.0,0.0,0.0,0.0,0.0,0.0,0.0,0.0,0.0,0.0,0.0,0.0,0.0,0.0,0.0,0.0,0.0,0.0,0.0,0.0,0.0,0.0,0.0,0.0,0.0,0.0,0.0,0.0,0.0,0.0,0.0,0.0,0.0,0.0,0.0,0.0,0.0,0.0,0.0,0.0,0.0,0.0,0.0,0.0,0.0,0.0,0.0,0.0,0.0,0.0,0.0,0.0,0.0,0.0,0.0,0.0,0.0,0.0,0.0,0.0,0.0,0.0,0.0,0.0,0.0,0.0,0.0,0.0,0.0,0.0,0.0,0.0,0.0,0.0,0.0,0.0,0.0,0.0,0.0,-0.0692,0.0,0.0,0.0,0.0,0.0,0.0,0.0,0.0,-0.0125,0.0,0.0,0.0,0.0,0.0,0.0,0.0,0.0,0.0,0.0,0.0,0.0,0.0,0.0,0.0,0.0,0.0,0.0,0.0,0.0,0.0,0.0,0.0,0.0,0.0,0.0,0.0,0.0,0.0,0.0,0.0,0.0,0.0,0.0,0.0,0.0,0.0,0.0,0.0,0.0,0.0,0.0,0.0,0.0,0.0,0.0,0.0,0.0,0.0,0.0,0.0,0.0,0.0,0.0,0.0,0.0,0.0,0.0,0.0,0.0,0.0,0.0,0.0,0.0,0.0,0.0,0.0,0.0,0.0,0.0,0.0,0.0,0.0,0.0,0.0,0.0,0.0,0.0,0.0,0.0,0.0,0.0,0.0,0.0,0.0,0.0,0.0,0.0,0.0,0.0,0.0,0.0,0.0,0.0,0.0,0.0,0.0,0.0,0.0,0.0,0.0,0.0,-0.0282,0.0,0.0,0.0,0.0,0.0,0.0,0.0,0.0,0.0,0.0,0.0,0.0,0.0,0.0,0.0,0.0,0.0,0.0,0.0,0.0,0.0,0.0,0.0,0.0,0.0,0.0,0.0,0.0,0.0,0.0,0.0,0.0,0.0,0.0,0.0,0.0,0.0,0.0,0.0,0.0,0.0,0.0,0.0,0.0,0.0,0.0,0.0,0.0,0.0,0.0,0.0,0.0,0.0,0.0,0.0,0.0,0.0,0.0,0.0,0.0,0.0,0.0,0.0,0.0,0.0,0.0,0.0,0.0,0.0,0.0,0.0,0.0,0.0,0.0,0.0,0.0,0.0,0.0,0.0,0.0,0.0,0.0,0.0,0.0,0.0,0.0,0.0,0.0,0.0,0.0,0.0,0.0,0.0,0.0,0.0,0.0,0.0,0.0,0.0,0.0,0.0,0.0,0.0,0.0,0.0,0.0,0.0,0.0,0.0,0.0,-0.0136,0.0,0.0,0.0,0.0,0.0,0.0,0.0,0.0,0.0,0.0,0.0,0.0,0.0,0.0,0.0,0.0,0.0,0.0,0.0,0.0,0.0,0.0,0.0,0.0,0.0,0.0,0.0,0.0,0.0,0.0,0.0,0.0,0.0,0.0,0.0,0.0,0.0,0.0,0.0,0.0,0.0,0.0,0.0,0.0,0.0,0.0,0.0,0.0,0.0,0.0,0.0,0.0,0.0,0.0,0.0,0.0,0.0,0.0,0.0,0.0,0.0,0.0,0.0,0.0,0.0,0.0,0.0,0.0,0.0,0.0,0.0,0.0,0.0,0.0,0.0,0.0,0.0,0.0,0.0,0.0,0.0,0.0,0.0,0.0,0.0,0.0,0.0,0.0,0.0,0.0,0.0,0.0,0.0,0.0,0.0,0.0,0.0,0.0,0.0,0.0,0.0,0.0,0.0,0.0,0.0,0.0,0.0,0.0,0.0,0.0,0.0,0.0,0.0,0.0,0.0,0.0,0.0,0.0,0.0,0.0,0.0,0.0,0.0,0.0,0.0,0.0,0.0,0.0,0.0,0.0,0.0,0.0,0.0,0.0,0.0,0.0,0.0,0.0,0.0,0.0,0.0,0.0,0.0,0.0,0.0,0.0,0.0,0.0,0.0,0.0,0.0,0.0,0.0,0.0,0.0,0.0,0.0,0.0,0.0,0.0,0.0,0.0,0.0,0.0,0.0,0.0,0.0,0.0,0.0,0.0,0.0,0.0,0.0,0.0,0.0,0.0,0.0,0.0,0.0,0.0,0.0,0.0,0.0,0.0,0.0,0.0,0.0,0.0,0.0,0.0,0.0,0.0,0.0,0.0,0.0,0.0,0.0,0.0,0.0,0.0,0.0,0.0,0.0,0.0,0.0,0.0,0.0,0.0,0.0,0.0,0.0,0.0,0.0,0.0,0.0,0.0,0.0,0.0,0.0,0.0,0.0,0.0,0.0,0.0,0.0,0.0,0.0,0.0,0.0,0.0,0.0,0.0,0.0,0.0,0.0,0.0,0.0,0.0,0.0,0.0,0.0,0.0,0.0,0.0,0.0,0.0,0.0,0.0,0.0,0.0,0.0,0.0,0.0,0.0,0.0,0.0,0.0,0.0,0.0,0.0,0.0,0.0,0.0,0.0,0.0,0.0,0.0,0.0,0.0,0.0,0.0,0.0,0.0,0.0,0.0,0.0,0.0,0.0,0.0,0.0,0.0,0.0,0.0,0.0,0.0,0.0,0.0,0.0,0.0,0.0,0.0,0.0,0.0,0.0,0.0,0.0,0.0,0.0,0.0,0.0,0.0,0.0,0.0,0.0,0.0,0.0,0.0,0.0,0.0,0.0,0.0,0.0,0.0,0.0,0.0,0.0,0.0,0.0,0.0,0.0,0.0,0.0,0.0,0.0,0.0,0.0,0.0,0.0,0.0,0.0,0.0,0.0,0.0,0.0,0.0,0.0,0.0,0.0,0.0,0.0,0.0,0.0,0.0,0.0,0.0,0.0,0.0,0.0,0.0,0.0,0.0,0.0,0.0,0.0,0.0,0.0,0.0,0.0,0.0,0.0,0.0,0.0,0.0,0.0,0.0,0.0,0.0,0.0,0.0,0.0,0.0,0.0,0.0,0.0,0.0,0.0,0.0,0.0,0.0,0.0,0.0,0.0,0.0,0.0,0.0,0.0,0.0,0.0,0.0,0.0,0.0,0.0,0.0,0.0,0.0,0.0,0.0,0.0,0.0,0.0,0.0,0.0,0.0,0.0,0.0,0.0,0.0,0.0,0.0,0.0,0.0,0.0,0.0,0.0,0.0,0.0,0.0,0.0,0.0,0.0,0.0,0.0,0.0,0.0,0.0,0.0,0.0,0.0,0.0,0.0,0.0,0.0,0.0,0.0,0.0,0.0,0.0,0.0,0.0,0.0,0.0,0.0,0.0,0.0,0.0,0.0,0.0,0.0,0.0,0.0,0.0,0.0,0.0,0.0,0.0,0.0,0.0,0.0,0.0,0.0,0.0,0.0,0.0,0.0,0.0,0.0,0.0,0.0,0.0,0.0,0.0,0.0,0.0,0.0,0.0,0.0,0.0,0.0,0.0,0.0,0.0,0.0,0.0,0.0,0.0,0.0,0.0,0.0,0.0,0.0,0.0,0.0,0.0,0.0,0.0,0.0,0.0,0.0,0.0,0.0,0.0,0.0,0.0,0.0,0.0,0.0,0.0,0.0,0.0,0.0,0.0,0.0,0.0,0.0,0.0,0.0,0.0,0.0,0.0,0.0,0.0,0.0,0.0,0.0,0.0,0.0,0.0,0.0,0.0,0.0,0.0,0.0,0.0,0.0,0.0,0.0,0.0,0.0,0.0,0.0,0.0,0.0,0.0,0.0,0.0,0.0,0.0,0.0,0.0,0.0,0.0,0.0,0.0,0.0,0.0,0.0,0.0,0.0,0.0,0.0,0.0,0.0,0.0,0.0,0.0,0.0,0.0,0.0,0.0,0.0,0.0,0.0,0.0,0.0,0.0,0.0,0.0,0.0,0.0,0.0,0.0,0.0,0.0,0.0,0.0,0.0,0.0,0.0,0.0,0.0,0.0,0.0,0.0,0.0,0.0,0.0,0.0,0.0,0.0,0.0,0.0,0.0,0.0,0.0,0.0,0.0,0.0,0.0,0.0,0.0,0.0,0.0,0.0,0.0,0.0,0.0,0.0,0.0,0.0,0.0,0.0,0.0,0.0,0.0,0.0,0.0,0.0,0.0,0.0,0.0,0.0,0.0,0.0,0.0,0.0,0.0,0.0,0.0,0.0,0.0,0.0,0.0,0.0,0.0,0.0,0.0,0.0,0.0,0.0,0.0,0.0,0.0,0.0,0.0,0.0,0.0,0.0,0.0,0.0,0.0,0.0,0.0,0.0,0.0,0.0,0.0,0.0,0.0,0.0,0.0,0.0,0.0,0.0,0.0,0.0,0.0,0.0,0.0,0.0,0.0,0.0,0.0,0.0,0.0,0.0,0.0,0.0,0.0,0.0,0.0,0.0,0.0,0.0,0.0,0.0,0.0,0.0,0.0,0.0,0.0,0.0,0.0,0.0,0.0,0.0,0.0,0.0,0.0,0.0,0.0,0.0,0.0,0.0,0.0,0.0,0.0,0.0,0.0,0.0,0.0,0.0,0.0,0.0,0.0,0.0,0.0,0.0,0.0,0.0,0.0,0.0,0.0,0.0,0.0,0.0,0.0,0.0,0.0,0.0,0.0,0.0,0.0,0.0,0.0,0.0,0.0,0.0,0.0,0.0,0.0,0.0,0.0,0.0,0.0,0.0,0.0,0.0,0.0,0.0,0.0,0.0,0.0,0.0,0.0,0.0,0.0,0.0,0.0,0.0,0.0,0.0,0.0,0.0,0.0,0.0,0.0,0.0,0.0,0.0,0.0,0.0,0.0,0.0,0.0,0.0,0.0,0.0,0.0,0.0,0.0,0.0,0.0,0.0,0.0,0.0,0.0,0.0,0.0,0.0,0.0,0.0,0.0,0.0,0.0,0.0,0.0,0.0,0.0,0.0,0.0,0.0,0.0,0.0,0.0,0.0,0.0,0.0,0.0,0.0,0.0,0.0,0.0,0.0,0.0,0.0,0.0,0.0,0.0,0.0,0.0,0.0,0.0,0.0,0.0,0.0,0.0,0.0,0.0,0.0,0.0,0.0,0.0,0.0,0.0,0.0,0.0,0.0,0.0,0.0,0.0,0.0,0.0,0.0,0.0,0.0,0.0,0.0,0.0,0.0,0.0,0.0,0.0,0.0,0.0,0.0,0.0,0.0,0.0,0.0,0.0,0.0,0.0,0.0,0.0,0.0,0.0,0.0,0.0,0.0,0.0,0.0,0.0,0.0,0.0,0.0,0.0,0.0,0.0,0.0,0.0,0.0,0.0,0.0,0.0,0.0,0.0,0.0,0.0,0.0,0.0,0.0,0.0,0.0,0.0,0.0,0.0,0.0,0.0,0.0,0.0,0.0,0.0,0.0,0.0,0.0,0.0,0.0,0.0,0.0,0.0,0.0,0.0,0.0,0.0,0.0,0.0,0.0,0.0,0.0,0.0,0.0,0.0,0.0,0.0,0.0,0.0,0.0,0.0,0.0,0.0,0.0,0.0,0.0,0.0,0.0,0.0,0.0,0.0,0.0,0.0,0.0,0.0,0.0,0.0,0.0,0.0,0.0,0.0,0.0,0.0,0.0,0.0,0.0,0.0,0.0,0.0,0.0,0.0,0.0,0.0,0.0,0.0,0.0,0.0,0.0,0.0,0.0,0.0,0.0,0.0,0.0,0.0,0.0,0.0,0.0,0.0,0.0,0.0,0.0,0.0,0.0,0.0,0.0,0.0,0.0,0.0,0.0,0.0,0.0,0.0,0.0,0.0,0.0,0.0,0.0,0.0,0.0,0.0,0.0,0.0,0.0,0.0,0.0,0.0,0.0,0.0,0.0,0.0,0.0,0.0,0.0,0.0,0.0,0.0,0.0,0.0,0.0,0.0,0.0,0.0,0.0,0.0,0.0,0.0,0.0,0.0,0.0,0.0,0.0,0.0,0.0,0.0,0.0,0.0,0.0,0.0,0.0,0.0,0.0,0.0,0.0,0.0,0.0,0.0,0.0,0.0,0.0,0.0,0.0,0.0,0.0,0.0,0.0,0.0,0.0,0.0,0.0,0.0,0.0,0.0,0.0,0.0,0.0,0.0,0.0,0.0,0.0,0.0,0.0,0.0,0.0,0.0,0.0,0.0,0.0,0.0,0.0,0.0,0.0,0.0,0.0,0.0,0.0,0.0,0.0,0.0,0.0,0.0,0.0,0.0,0.0,0.0,0.0,0.0,0.0,0.0,0.0,0.0,0.0,0.0,0.0,0.0,0.0,0.0,0.0,0.0,0.0,0.0,0.0,0.0,0.0,0.0,0.0,0.0,0.0,0.0,0.0,0.0,0.0,0.0,0.0,0.0,0.0,0.0,0.0,0.0,0.0,0.0,0.0,0.0,0.0,0.0,0.0,0.0,0.0,0.0,0.0,0.0,0.0,0.0,0.0,0.0,0.0,0.0,0.0,0.0,0.0,0.0,0.0,0.0,0.0,0.0,0.0,0.0,0.0,0.0,0.0,0.0,0.0,0.0,0.0,0.0,0.0,0.0,0.0,0.0,0.0,0.0,0.0,0.0,0.0,0.0,0.0,0.0,0.0,0.0,0.0,0.0,0.0,0.0,0.0,0.0,0.0,0.0,0.0,0.0,0.0,0.0,0.0,0.0,0.0,0.0,0.0,0.0,0.0,0.0,0.0,0.0,0.0,0.0,0.0,0.0,0.0,0.0,0.0,0.0,0.0,0.0,0.0,0.0,0.0,0.0,0.0,0.0,0.0,0.0,0.0,0.0,0.0,0.0,0.0,0.0,0.0,0.0,0.0,0.0,0.0,0.0,0.0,0.0,0.0,0.0,0.0,0.0,0.0,0.0,0.0,0.0,0.0,0.0,0.0,0.0,0.0,0.0,0.0,0.0,0.0,0.0,0.0,0.0,0.0,0.0,0.0,0.0,0.0,0.0,0.0,0.0,0.0,0.0,0.0,0.0,0.0,0.0,0.0,0.0,0.0,0.0,0.0,0.0,0.0,0.0,0.0,0.0,0.0,0.0,0.0,0.0,0.0,0.0,0.0,0.0,0.0,0.0,0.0,0.0,0.0,0.0,0.0,0.0,0.0,0.0,0.0,0.0,0.0,0.0,0.0,0.0,0.0,0.0,0.0,0.0,0.0,0.0,0.0,0.0,0.0,0.0,0.0,0.0,0.0,0.0,0.0,0.0,0.0,0.0,0.0,0.0,0.0,0.0,0.0,0.0,0.0,0.0,0.0,0.0,0.0,0.0,0.0,0.0,0.0,0.0,0.0,0.0,0.0,0.0,0.0,0.0,0.0,0.0,0.0,0.0,0.0,0.0,0.0,0.0,0.0,0.0,0.0,0.0,0.0,0.0,0.0,0.0,0.0,0.0,0.0,0.0,0.0,0.0,0.0,0.0,0.0,0.0,0.0,0.0,0.0,0.0,0.0,0.0,0.0,0.0,0.0,0.0,0.0,0.0,0.0,0.0,0.0,0.0,0.0,0.0,0.0,0.0,0.0,0.0,0.0,0.0,0.0,0.0,0.0,0.0,0.0,0.0,0.0,0.0,0.0,0.0,0.0,0.0,0.0,0.0,0.0,0.0,0.0,0.0,0.0,0.0,0.0,0.0,0.0,0.0,0.0,0.0,0.0,0.0,0.0,0.0,0.0,0.0,0.0,0.0,0.0,0.0,0.0,0.0,0.0,0.0,0.0,0.0,0.0,0.0,0.0,0.0,0.0,0.0,0.0,0.0,0.0,0.0,0.0,0.0,0.0,0.0,0.0,0.0,0.0,0.0,0.0,0.0,0.0,0.0,0.0,0.0,0.0,0.0,0.0,0.0,0.0,0.0,0.0,0.0,0.0,0.0,0.0,0.0,0.0,0.0,0.0,0.0,0.0,0.0,0.0,0.0,0.0,0.0,0.0,0.0,0.0,0.0,0.0,0.0,0.0,0.0,0.0,0.0,0.0,0.0,0.0,0.0,0.0,0.0,0.0,0.0,0.0,0.0,0.0,0.0,0.0,0.0,0.0,0.0,0.0,0.0,0.0,0.0,0.0,0.0,0.0,0.0,0.0,0.0,0.0,0.0,0.0,0.0,0.0,0.0,0.0,0.0,0.0,0.0,0.0,0.0,0.0,0.0,0.0,0.0,0.0,0.0,0.0,0.0,0.0,0.0,0.0,0.0,0.0,0.0,0.0,0.0,0.0,0.0,0.0,0.0,0.0,0.0,0.0,0.0,0.0,0.0,0.0,0.0,0.0,0.0,0.0,0.0,0.0,0.0,0.0,0.0,0.0,0.0,0.0,0.0,0.0,0.0,0.0,0.0,0.0,0.0,0.0,0.0,0.0,0.0,0.0,0.0,0.0,0.0,0.0,0.0,0.0,0.0,0.0,0.0,0.0,0.0,0.0,0.0,0.0,0.0,0.0,0.0,0.0,0.0,0.0,0.0,0.0,0.0,0.0,0.0,0.0,0.0,0.0,0.0,0.0,0.0,0.0,0.0,0.0,0.0,0.0,0.0,0.0,0.0,0.0,0.0,0.0,0.0,0.0,0.0,0.0,0.0,0.0,0.0,0.0,0.0,0.0,0.0,0.0,0.0,0.0,0.0,0.0,0.0,0.0,0.0,0.0,0.0,0.0,0.0,0.0,0.0,0.0,0.0,0.0,0.0,0.0,0.0,0.0,0.0,0.0,0.0,0.0,0.0,0.0,0.0,0.0,0.0,0.0,0.0,0.0,0.0,0.0,0.0,0.0,0.0,0.0,0.0,0.0,0.0,0.0,0.0,0.0,0.0,0.0,0.0,0.0,0.0,0.0,0.0,0.0,0.0,0.0,0.0,0.0,0.0,0.0,0.0,0.0,0.0,0.0,0.0,0.0,0.0,0.0,0.0,0.0,0.0,0.0,0.0,0.0,0.0,0.0,0.0,0.0,0.0,0.0,0.0,0.0,0.0,0.0,0.0,0.0,0.0,0.0,0.0,0.0,0.0,0.0,0.0,0.0,0.0,0.0,0.0,0.0,0.0,0.0,0.0,0.0,0.0,0.0,0.0,0.0,0.0,0.0,0.0,0.0,0.0,0.0,0.0,0.0,0.0,0.0,0.0,0.0,0.0,0.0,0.0,0.0,0.0,0.0,0.0,0.0,0.0,0.0,0.0,0.0,0.0,0.0,0.0,0.0,0.0,0.0,0.0,0.0,0.0,0.0,0.0,0.0,0.0,0.0,0.0,0.0,0.0,0.0,0.0,0.0,0.0,0.0,0.0,0.0,0.0,0.0,0.0,0.0,0.0,0.0,0.0,0.0,0.0,0.0,0.0,0.0,0.0,0.0,0.0,0.0,0.0,0.0,0.0,0.0,0.0,0.0,0.0,0.0,0.0,0.0,0.0,0.0,0.0,0.0,0.0,0.0,0.0,0.0,0.0,0.0,0.0,0.0,0.0,0.0,0.0,0.0,0.0,0.0,0.0,0.0,0.0,0.0,0.0,0.0,0.0,0.0,0.0,0.0,0.0,0.0,0.0,0.0,0.0,0.0,0.0,0.0,0.0,0.0,0.0,0.0,0.0,0.0,0.0,0.0,0.0,0.0,0.0,0.0,0.0,0.0,0.0,0.0,0.0,0.0,0.0,0.0,0.0,0.0,0.0,0.0,0.0,0.0,0.0,0.0,0.0,0.0,0.0,0.0,0.0,0.0,0.0,0.0,0.0,0.0,0.0,0.0,0.0,0.0,0.0,0.0,0.0,0.0,0.0,0.0,0.0,0.0,0.0,0.0,0.0,0.0,0.0,0.0,0.0,0.0,0.0,0.0,0.0,0.0,0.0,0.0,0.0,0.0,0.0,0.0,0.0,0.0,0.0,0.0,0.0,0.0,0.0,0.0,0.0,0.0,0.0,0.0,0.0,0.0,0.0,0.0,0.0,0.0,0.0,0.0,0.0,0.0,0.0,0.0,0.0,0.0,0.0,0.0,0.0,0.0,0.0,0.0,0.0,0.0,0.0,0.0,0.0,0.0,0.0,0.0,0.0,0.0,0.0,0.0,0.0,0.0,0.0,0.0,0.0,0.0,0.0,0.0,0.0,0.0,0.0,0.0,0.0,0.0,0.0,0.0,0.0,0.0,0.0,0.0,0.0,0.0,0.0,0.0,0.0,0.0,0.0,0.0,0.0,0.0,0.0,0.0,0.0,0.0,0.0,0.0,0.0,0.0,0.0,0.0,0.0,0.0,0.0,0.0,0.0,0.0,0.0,0.0,0.0,0.0,0.0,0.0,0.0,0.0,0.0,0.0,0.0,0.0,0.0,0.0,0.0,0.0,0.0,0.0,0.0,0.0,0.0,0.0,0.0,0.0,0.0,0.0,0.0,0.0,0.0,0.0,0.0,0.0,0.0,0.0,0.0,0.0,0.0,0.0,0.0,0.0,0.0,0.0,0.0,0.0,0.0,0.0,0.0,0.0,0.0,0.0,0.0,0.0,0.0,0.0,0.0,0.0,0.0,0.0,0.0,0.0,0.0,0.0,0.0,0.0,0.0,0.0,0.0,0.0,0.0,0.0,0.0,0.0,0.0,0.0,0.0,0.0,0.0,0.0,0.0,0.0,0.0,0.0,0.0,0.0,0.0,0.0,0.0,0.0,0.0,0.0,0.0,0.0,0.0,0.0,0.0,0.0,0.0,0.0,0.0,0.0,0.0,0.0,0.0,0.0,0.0,0.0,0.0,0.0,0.0,0.0,0.0,0.0,0.0,0.0,0.0,0.0,0.0,0.0,0.0,0.0,0.0,0.0,0.0,0.0,0.0,0.0,0.0,0.0,0.0,0.0,0.0,0.0,0.0,0.0,0.0,0.0,0.0,0.0,0.0,0.0,0.0,0.0,0.0,0.0,0.0,0.0,0.0,0.0,0.0,0.0,0.0,0.0,0.0,0.0,0.0,0.0,0.0,0.0,0.0,0.0,0.0,0.0,0.0,0.0,0.0,0.0,0.0,0.0,0.0,0.0,0.0,0.0,0.0,0.0,0.0,0.0,0.0,0.0,0.0,0.0,0.0,0.0,0.0,0.0388,0.0585,0.0589,0.0393,0.0196,0.0,0.0,0.0,0.0,0.0,0.0,0.0,0.0,0.0,0.0,0.0,0.0,0.0,0.0,0.0,0.0,0.0,0.0,0.0,0.0,0.0,0.0,0.0,0.0,0.0,0.0,0.0,0.0,0.0,0.0,0.0,0.0,0.0,0.0,0.0,0.0,0.0,0.0,0.0,0.0,0.0,0.0,0.0,0.0,0.0,0.0,0.0,0.0,0.0,0.0,0.0,0.0,0.0,0.0,0.0,0.0,0.0,0.0,0.0,0.0,0.0,0.0,0.0,0.0,0.0375,0.0,0.0,0.0,0.0,0.0,0.0,0.0,0.0,0.0,0.0,0.0,0.0,0.0,0.0,0.0,0.0,0.0,0.0,0.0,0.0,0.0,0.0,0.0,0.0,0.0,0.0,0.0,0.0,0.0,0.0,0.0,0.0,0.0,0.0,0.0,0.0,0.0,0.0,0.0,0.0,0.0,0.0,0.1961,0.2747,0.275,0.1767,0.0785,0.0,0.0,0.0,0.0,0.0,0.0,0.0,0.0,0.0,0.0,0.0,0.0,0.0,0.0,0.0,0.0,0.0,0.0,0.0,0.0,0.0,0.0,0.0,0.0,0.0,0.0,0.0,0.0,0.0,0.0,0.0,0.0,0.0,0.0,0.0,0.0,0.0,0.0,0.0,0.0,0.0,0.0,0.0,0.0,0.0,0.0,0.0,0.0,0.0,0.0,0.0,0.0,0.0,0.0,0.0,0.0,0.0,0.0,0.0,0.0,0.0,0.0,0.0,0.0,0.0133,0.0,0.0,0.0,0.0,0.0,0.0,0.0,0.0,0.0,0.0,0.0,0.0,0.0,0.0,0.0,0.0,0.0,0.0,0.0,0.0,0.0,0.0,0.0,0.0,0.0,0.0,0.0,0.0,0.0,0.0,0.0,0.0,0.0,0.0,0.0,0.0,0.0,0.0586,0.1765,0.1765,0.177,0.1978,0.4156,0.4369,0.3194,0.2795,0.2196,0.1797,0.0599,0.0,0.0,0.0,0.0,0.0,0.0,0.0,0.0,0.0,0.0,0.0,0.0,0.0,0.0,0.0,0.0,0.0,0.0,0.0,0.0,0.0,0.0,0.0,0.0,0.0,0.0,0.0,0.0,0.0,0.0,0.0,0.0,0.0,0.0,0.0,0.0,0.0,0.0,0.0,0.0,0.0,0.0,0.0,0.0,0.0,0.0,0.0,0.0,0.0,0.0,0.0,0.0,0.0,0.0,0.0,0.0,0.0,0.0,0.0,0.0,0.0,0.0,0.0558,0.0568,0.058,0.0741,0.0303,0.0,0.0,0.0,0.0,0.0,0.0,0.0,0.0,0.0,0.0,0.0,0.0,0.0,0.0,0.0,0.0,0.0,0.0,0.0,0.0,0.0,0.0,0.0,0.0,0.0188,0.0758,0.0947,0.0763,0.0776,0.0777,0.0975,0.0788,0.1577,0.2564,0.4151,0.4743,0.496,0.4994,0.5811,0.5034,0.3446,0.3253,0.3258,0.3055,0.1221,0.0204,0.0,0.0,0.0,0.0,0.0,0.0,0.0,0.0,0.0,0.0,0.0,0.0,0.0,0.0,0.0,0.0,0.0,0.0,0.0,0.0,0.0,0.0,0.0,0.0,0.0,0.0,0.0,0.0,0.0,0.0,0.0,0.0,0.0,0.0,0.0,0.0,0.0,0.0,0.0,0.0,0.0,0.0,0.0,0.0,0.0,0.0,0.0,0.0,0.0,0.0,0.0,0.0,0.0,0.0,0.0,0.0,0.0,0.0,0.0,0.0,0.0,0.1885,0.2244,0.2315,0.2344,0.1266,0.0,0.0,0.0,0.0,0.0,0.0,0.0,0.0,0.0,0.0,0.0,0.0,0.0,0.0,0.0,0.0,0.0,0.0,0.0,0.0,0.0,0.0,0.0,0.0,0.0957,0.2896,0.3092,0.291,0.2938,0.3134,0.3149,0.3179,0.5175,0.6401,0.6455,0.8482,0.95,0.9303,0.632,0.4708,0.4301,0.3512,0.3318,0.3111,0.2073,0.1037,0.0,0.0,0.0,0.0,0.0,0.0,0.0,0.0,0.0,0.0,0.0,0.0,0.0,0.0,0.0,0.0,0.0,0.0,0.0,0.0,0.0,0.0,0.0,0.0,0.0,0.0,0.0,0.0,0.0,0.0,0.0,0.0,0.0,0.0,0.0,0.0,0.0,0.0,0.0,0.0,0.0,0.0,0.0,0.0,0.0,0.0,0.0,0.0,0.0,0.0,0.0,0.0,0.0,0.0,0.0,0.0,0.0,0.0,0.0,0.0,0.0,0.3576,0.4126,0.3922,0.288,0.1305,0.0,0.0,0.0,0.0,0.0,0.0,0.0,0.0,0.0,0.0,0.0,0.0,0.0,0.0,0.0,0.0,0.0,0.0,0.0,0.0,0.0,0.0,0.0,0.134,0.289,0.5023,0.6612,0.7449,0.7521,0.7524,0.6783,0.5469,0.6086,0.6521,0.6578,0.7401,0.7815,0.761,0.557,0.4751,0.4751,0.3731,0.3321,0.3321,0.2075,0.1038,0.0,0.0,0.0,0.0,0.0,0.0,0.0,0.0,0.0,0.0,0.0,0.0,0.0,0.0,0.0,0.0,0.0,0.0,0.0,0.0,0.0,0.0,0.0,0.0,0.0,0.0,0.0,0.0,0.0,0.0,0.0,0.0,0.0,0.0,0.0,0.0,0.0,0.0,0.0,0.0,0.0,0.0,0.0,0.0,0.0,0.0,0.0,0.0,0.0,0.0,0.0,0.0,0.0,0.0,0.0,0.0,0.0,0.0,0.0,0.0,0.0,0.5408,0.6013,0.5665,0.4121,0.235,0.0853,0.0172,0.0,0.0,0.0,0.0,0.0,0.0,0.0,0.0,0.0,0.0,0.0,0.0,0.0,0.0,0.0,0.0,0.0,0.0,0.0762,0.1147,0.1149,0.3092,0.5058,0.7219,0.9628,1.09,1.0803,1.0032,0.9093,0.7569,0.6979,0.66,0.6635,0.7469,0.7676,0.7259,0.6241,0.5833,0.5835,0.481,0.419,0.377,0.2932,0.1886,0.0629,0.021,0.0,0.0,0.0,0.0,0.0,0.0,0.0,0.0,0.0,0.0,0.0,0.0,0.0,0.0,0.0,0.0,0.0,0.0,0.0,0.0,0.0,0.0,0.0,0.0,0.0,0.0,0.0,0.0,0.0,0.0,0.0,0.0,0.0,0.0,0.0,0.0,0.0,0.0,0.0,0.0,0.0,0.0,0.0,0.0,0.0,0.0,0.0,0.0,0.0,0.0,0.0,0.0,0.0,0.0,0.0,0.0,0.0,0.0,0.0,0.7095,0.7781,0.7768,0.5972,0.4138,0.2434,0.0522,0.0,0.0,0.0,0.0,0.0,0.0,0.0,0.0,0.0,0.0,0.0,0.0,0.0,0.0,0.0,0.0,0.0,0.0194,0.1952,0.3326,0.3487,0.5268,0.7285,0.974,1.1748,1.2814,1.2933,1.0784,0.9612,0.9636,0.7651,0.6646,0.7061,0.9143,0.9561,0.8518,0.817,0.778,0.7573,0.6576,0.5536,0.4683,0.4687,0.3623,0.1918,0.0639,0.0213,0.0,0.0,0.0,0.0,0.0,0.0,0.0,0.0,0.0,0.0,0.0,0.0,0.0,0.0,0.0,0.0,0.0,0.0,0.0,0.0,0.0,0.0,0.0,0.0,0.0,0.0,0.0,0.0,0.0,0.0,0.0,0.0,0.0,0.0,0.0,0.0,0.0,0.0,0.0,0.0,0.0,0.0,0.0,0.0,0.0,0.0,0.0,0.0,0.0,0.0,0.0,0.0,0.0,0.0,0.0,0.0,0.0,0.0,0.7852,0.819,0.8357,0.7933,0.6277,0.4393,0.2638,0.1055,0.0,0.0,0.0,0.0,0.0,0.0,0.0,0.0,0.0,0.0,0.0,0.0,0.0,0.0,0.0,0.0582,0.2149,0.4335,0.633,0.7895,0.8507,0.9719,1.1946,1.262,1.2922,1.2845,1.0816,0.9869,1.0024,0.631,0.5919,0.9319,0.9948,0.9948,0.9733,0.9322,0.8907,0.8907,0.7653,0.7022,0.6809,0.639,0.5967,0.5326,0.4261,0.2769,0.1278,0.1279,0.1279,0.1065,0.0212,0.0,0.0,0.0,0.0,0.0,0.0,0.0,0.0,0.0,0.0,0.0,0.0,0.0,0.0,0.0,0.0,0.0,0.0,0.0,0.0,0.0,0.0,0.0,0.0,0.0,0.0,0.0,0.0,0.0,0.0,0.0,0.0,0.0,0.0,0.0,0.0,0.0,0.0,0.0,0.0,0.0,0.0,0.0,0.0,0.0,0.0,0.0,0.0,0.0,0.0,0.0,0.0,0.0,0.9469,0.9782,0.9913,0.9902,0.8345,0.6396,0.4622,0.1942,0.0,0.0,0.0,0.0,0.0,0.0,0.0,0.0,0.0,0.0,0.0,0.0,0.0,0.0,0.078,0.2551,0.5722,0.7162,0.8802,1.1012,1.0201,1.06,1.2814,1.2917,1.2807,1.2882,1.0902,0.9983,1.0138,0.8699,0.9151,1.1732,1.1294,1.1289,1.1289,1.064,1.0424,1.0424,0.9572,0.9148,0.9148,0.8511,0.809,0.7453,0.7027,0.5749,0.3834,0.3835,0.3623,0.2983,0.1918,0.0853,0.0,0.0,0.0,0.0,0.0,0.0,0.0,0.0,0.0,0.0,0.0,0.0,0.0,0.0,0.0,0.0,0.0,0.0,0.0,0.0,0.0,0.0,0.0,0.0,0.0,0.0,0.0,0.0,0.0,0.0,0.0,0.0,0.0,0.0,0.0,0.0,0.0,0.0,0.0,0.0,0.0,0.0,0.0,0.0,0.0,0.0,0.0,0.0,0.0,0.0,0.0,0.0,1.1384,1.15,1.1577,1.1437,1.0135,0.8079,0.6088,0.299,0.0343,0.0,0.0,0.0,0.0,0.0,0.0,0.0,0.0,0.0,0.0,0.0,0.0194,0.0388,0.2362,0.5178,0.938,1.0053,1.0914,1.2749,1.1115,1.0904,1.2722,1.2813,1.2882,1.2925,1.1451,1.0748,1.0632,1.2565,1.3645,1.3439,1.2999,1.2565,1.2565,1.2339,1.2122,1.2122,1.1487,1.1276,1.1276,1.0632,0.9784,0.8936,0.9151,0.8515,0.7243,0.7243,0.639,0.5326,0.4047,0.2343,0.0426,0.0,0.0,0.0,0.0,0.0,0.0,0.0,0.0,0.0,0.0,0.0,0.0,0.0,0.0,0.0,0.0,0.0,0.0,0.0,0.0,0.0,0.0,0.0,0.0,0.0,0.0,0.0,0.0,0.0,0.0,0.0,0.0,0.0,0.0,0.0,0.0,0.0,0.0,0.0,0.0,0.0,0.0,0.0,0.0,0.0,0.0,0.0,0.0,0.0,0.0,0.0,1.1412,1.1427,1.159,1.1459,1.0178,0.8485,0.6216,0.3973,0.1843,0.0324,0.0,0.0,0.0,0.0,0.0,0.0,0.0,0.0,0.0,0.0,0.0582,0.2347,0.4542,0.6976,0.9452,1.1359,1.244,1.285,1.2512,1.2522,1.285,1.2856,1.3162,1.3368,1.3095,1.2963,1.2989,1.3418,1.3206,1.2772,1.3195,1.319,1.2762,1.3185,1.3391,1.318,1.2757,1.2545,1.2545,1.1906,1.1483,1.1271,1.0852,1.0212,0.9572,0.9148,0.8299,0.7022,0.5744,0.4258,0.2556,0.0639,0.0,0.0,0.0,0.0,0.0,0.0,0.0,0.0,0.0,0.0,0.0,0.0,0.0,0.0,0.0,0.0,0.0,0.0,0.0,0.0,0.0,0.0,0.0,0.0,0.0,0.0,0.0,0.0,0.0,0.0,0.0,0.0,0.0,0.0,0.0,0.0,0.0,0.0,0.0,0.0,0.0,0.0,0.0,0.0,0.0,0.0,0.0,0.0,0.0,0.0,1.1494,1.1498,1.1469,1.1732,1.1336,1.014,0.7802,0.4798,0.2141,0.0317,0.0,0.0,0.0,0.0,0.0,0.0,0.0,0.0,0.0,0.0,0.1174,0.4542,0.6774,0.9047,1.1166,1.2237,1.2904,1.3162,1.3211,1.3216,1.2957,1.3221,1.3336,1.352,1.3586,1.3618,1.3618,1.3618,1.3401,1.3185,1.3396,1.3396,1.318,1.3391,1.3602,1.3602,1.3391,1.318,1.318,1.2968,1.2545,1.2334,1.2122,1.1694,1.1059,1.0848,0.9996,0.8936,0.7871,0.6597,0.4685,0.213,0.0639,0.0,0.0,0.0,0.0,0.0,0.0,0.0,0.0,0.0,0.0,0.0,0.0,0.0,0.0,0.0,0.0,0.0,0.0,0.0,0.0,0.0,0.0,0.0,0.0,0.0,0.0,0.0,0.0,0.0,0.0,0.0,0.0,0.0,0.0,0.0,0.0,0.0,0.0,0.0,0.0,0.0,0.0,0.0,0.0,0.0,0.0,0.0,0.0,0.0,1.1422,1.158,1.1523,1.2024,1.2141,1.1601,0.9207,0.5431,0.1944,0.031,0.0,0.0,0.0,0.0,0.0,0.0,0.0,0.0,0.0,0.0386,0.216,0.5948,0.8417,1.0533,1.2674,1.2904,1.3162,1.3482,1.3515,1.3515,1.307,1.3395,1.3504,1.3602,1.3602,1.3602,1.3602,1.3602,1.3602,1.3602,1.3602,1.3602,1.3602,1.3602,1.3602,1.3602,1.3602,1.3602,1.3602,1.3602,1.3391,1.2968,1.2968,1.2757,1.2334,1.2334,1.1699,1.064,1.0,0.8727,0.7027,0.4471,0.213,0.0213,0.0,0.0,0.0,0.0,0.0,0.0,0.0,0.0,0.0,0.0,0.0,0.0,0.0,0.0,0.0,0.0,0.0,0.0,0.0,0.0,0.0,0.0,0.0,0.0,0.0,0.0,0.0,0.0,0.0,0.0,0.0,0.0,0.0,0.0,0.0,0.0,0.0,0.0,0.0,0.0,0.0,0.0,0.0,0.0,0.0,0.0,0.0,0.0,1.1525,1.1523,1.1646,1.2146,1.2202,1.158,0.9123,0.5502,0.206,0.0306,0.0,0.0,0.0,0.0,0.0,0.0,0.0,0.0,0.0,0.1713,0.3887,0.6281,0.8378,1.052,1.2674,1.3382,1.3487,1.3609,1.351,1.3526,1.362,1.352,1.3591,1.3602,1.3602,1.3602,1.3602,1.3602,1.3602,1.3602,1.3602,1.3602,1.3602,1.3602,1.3602,1.3602,1.3602,1.3602,1.3602,1.3602,1.3602,1.3602,1.3602,1.3391,1.3391,1.3391,1.2968,1.2334,1.1276,1.0428,0.958,0.809,0.4685,0.1279,0.0213,0.0,0.0,0.0,0.0,0.0,0.0,0.0,0.0,0.0,0.0,0.0,0.0,0.0,0.0,0.0,0.0,0.0,0.0,0.0,0.0,0.0,0.0,0.0,0.0,0.0,0.0,0.0,0.0,0.0,0.0,0.0,0.0,0.0,0.0,0.0,0.0,0.0,0.0,0.0,0.0,0.0,0.0,0.0,0.0,0.0,0.0,0.0,1.1433,1.1672,1.2019,1.2069,1.1222,0.9715,0.7224,0.4445,0.205,0.0302,0.0,0.0,0.0,0.0,0.0,0.0,0.0,0.0,0.0,0.1882,0.4049,0.6267,0.8332,1.0458,1.2669,1.3393,1.3532,1.352,1.3575,1.3586,1.3537,1.358,1.3602,1.3602,1.3602,1.3602,1.3602,1.3602,1.3602,1.3602,1.3602,1.3602,1.3602,1.3602,1.3602,1.3602,1.3602,1.3602,1.3602,1.3602,1.3602,1.3602,1.3602,1.3602,1.3602,1.3602,1.318,1.2757,1.2334,1.1487,1.064,0.9576,0.7659,0.5534,0.3621,0.2131,0.0853,0.0213,0.0,0.0,0.0,0.0,0.0,0.0,0.0,0.0,0.0,0.0,0.0,0.0,0.0,0.0,0.0,0.0,0.0,0.0,0.0,0.0,0.0,0.0,0.0,0.0,0.0,0.0,0.0,0.0,0.0,0.0,0.0,0.0,0.0,0.0,0.0,0.0,0.0,0.0,0.0,0.0,0.0,0.0,0.0,0.0,1.1522,1.1776,1.2284,1.2141,1.054,0.8333,0.5915,0.3572,0.1406,0.03,0.0,0.0,0.0,0.0,0.0,0.0,0.0,0.0,0.0,0.2231,0.459,0.624,0.8292,1.0618,1.2663,1.3216,1.3592,1.3591,1.3602,1.3602,1.3602,1.3602,1.3602,1.3602,1.3602,1.3602,1.3602,1.3602,1.3602,1.3602,1.3602,1.3602,1.3602,1.3602,1.3602,1.3602,1.3602,1.3602,1.3602,1.3602,1.3602,1.3602,1.3602,1.3629,1.3656,1.3656,1.3466,1.3067,1.2818,1.2383,1.1529,1.0856,0.9996,0.8939,0.7453,0.5111,0.2556,0.1278,0.0426,0.0,0.0,0.0,0.0,0.0,0.0,0.0,0.0,0.0,0.0,0.0,0.0,0.0,0.0,0.0,0.0,0.0,0.0,0.0,0.0,0.0,0.0,0.0,0.0,0.0,0.0,0.0,0.0,0.0,0.0,0.0,0.0,0.0,0.0,0.0,0.0,0.0,0.0,0.0,0.0,0.0,0.0,0.0,1.1319,1.1849,1.2246,1.2204,1.0337,0.8105,0.5837,0.2553,0.0,0.0,0.0,0.0,0.0,0.0,0.0,0.0,0.0,0.0,0.0,0.3482,0.6063,0.6175,0.8257,1.0618,1.2663,1.3292,1.3681,1.3597,1.3602,1.3602,1.3602,1.3602,1.3602,1.3602,1.3602,1.3602,1.3602,1.3602,1.3602,1.3602,1.3602,1.3602,1.3602,1.3602,1.3602,1.3602,1.3602,1.3602,1.3602,1.3602,1.3602,1.3602,1.3602,1.3678,1.3787,1.3787,1.3857,1.3934,1.3176,1.2925,1.2696,1.2156,1.1487,1.1064,1.1064,0.8511,0.5324,0.3834,0.1704,0.0,0.0,0.0,0.0,0.0,0.0,0.0,0.0,0.0,0.0,0.0,0.0,0.0,0.0,0.0,0.0,0.0,0.0,0.0,0.0,0.0,0.0,0.0,0.0,0.0,0.0,0.0,0.0,0.0,0.0,0.0,0.0,0.0,0.0,0.0,0.0,0.0,0.0,0.0,0.0,0.0,0.0,0.0,0.9076,0.9371,0.975,0.9688,0.8141,0.5882,0.3868,0.1568,0.0,0.0,0.0,0.0,0.0,0.0,0.0,0.0,0.0,0.0,0.0,0.348,0.606,0.6175,0.9493,1.2336,1.3377,1.3465,1.3592,1.3591,1.3602,1.3602,1.3602,1.3602,1.3602,1.3602,1.3602,1.3602,1.3602,1.3602,1.3602,1.3602,1.3602,1.3602,1.3602,1.3602,1.3602,1.3602,1.3602,1.3602,1.3613,1.3694,1.3727,1.3738,1.3814,1.3868,1.3901,1.3901,1.3928,1.3939,1.361,1.3573,1.3551,1.3222,1.2757,1.2334,1.2334,0.9996,0.7025,0.426,0.1704,0.0,0.0,0.0,0.0,0.0,0.0,0.0,0.0,0.0,0.0,0.0,0.0,0.0,0.0,0.0,0.0,0.0,0.0,0.0,0.0,0.0,0.0,0.0,0.0,0.0,0.0,0.0,0.0,0.0,0.0,0.0,0.0,0.0,0.0,0.0,0.0,0.0,0.0,0.0,0.0,0.0,0.0,0.0,0.5906,0.6161,0.634,0.6389,0.5316,0.3895,0.203,0.0767,0.0,0.0,0.0,0.0,0.0,0.0,0.0,0.0,0.0,0.0341,0.1056,0.3296,0.5889,0.8619,1.1449,1.3316,1.3498,1.352,1.3603,1.3591,1.3602,1.3602,1.3602,1.3602,1.3602,1.3602,1.3602,1.3602,1.3602,1.3602,1.3602,1.3602,1.3602,1.3602,1.3602,1.3602,1.3602,1.3607,1.3651,1.3673,0.0,1.3803,1.3852,1.3857,1.3928,1.3983,1.4026,1.4026,1.4053,1.4069,1.3906,1.3852,1.3825,1.3656,1.3391,1.2968,1.2757,1.0848,0.8299,0.6172,0.3407,0.1065,0.0213,0.0,0.0,0.0,0.0,0.0,0.0,0.0,0.0,0.0,0.0,0.0,0.0,0.0,0.0,0.0,0.0,0.0213,0.1066,0.1279,0.1066,0.0639,0.0213,0.0,0.0,0.0,0.0,0.0,0.0,0.0,0.0,0.0,0.0,0.0,0.0,0.0,0.0,0.0,0.0,0.0,0.0,0.0,0.0,0.2379,0.2541,0.2386,0.2367,0.1867,0.0304,0.0,0.0,0.0,0.0,0.0,0.0,0.0,0.0,0.0,0.0164,0.0853,0.2825,0.3495,0.6333,1.2879,1.3542,1.3509,1.3198,1.3423,1.3686,1.3597,1.3602,1.3602,1.3602,1.3602,1.3602,1.3602,1.3602,1.3602,1.3602,1.3602,1.3602,1.3602,1.3602,1.3602,1.3602,1.3613,1.3618,1.3624,1.3749,1.3798,1.3809,1.3923,1.3972,1.3972,1.3977,1.4053,1.4151,1.4151,1.4222,1.4292,1.4042,1.3955,1.3917,1.3678,1.3602,1.3602,1.2968,1.1271,0.9572,0.9151,0.66,0.3407,0.0852,0.0213,0.0213,0.0213,0.0,0.0,0.0216,0.0,0.0,0.0219,0.0,0.0,0.0,0.0,0.0,0.0214,0.0427,0.128,0.3199,0.3624,0.2985,0.1918,0.0853,0.0213,0.0,0.0,0.0,0.0,0.0,0.0,0.0,0.0,0.0,0.0,0.0,0.0,0.0,0.0,0.0,0.0,0.0,0.0,0.1164,0.0,0.0607,0.0619,0.0616,0.0456,0.0,0.0,0.0,0.0,0.0,0.0,0.0,0.0,0.0,0.0,0.1166,0.2428,0.2908,0.7681,1.1803,1.3436,1.3587,1.3509,1.3412,1.3631,1.3686,1.3597,1.3602,1.3602,1.3602,1.3602,1.3602,1.3602,1.3602,1.3602,1.3602,1.3602,1.3602,1.3602,1.3602,1.3602,1.3607,1.37,1.3743,1.3749,1.3868,1.3917,1.3928,1.4048,1.4097,1.4108,1.4195,1.4249,1.4276,1.4276,1.4292,1.4292,1.4042,1.3955,1.3917,1.3678,1.3602,1.3602,1.3391,1.2757,1.1694,0.9788,0.8936,0.7874,0.4256,0.2342,0.1278,0.1279,0.0643,0.0216,0.1089,0.0658,0.0221,0.1114,0.0666,0.0,0.0,0.0,0.0652,0.2372,0.4094,0.5158,0.4695,0.4689,0.4261,0.3195,0.277,0.1919,0.0213,0.0,0.0,0.0,0.0,0.0,0.0,0.0,0.0,0.0,0.0,0.0,0.0,0.0,0.0,0.0,0.0,0.0,0.0567,0.0,0.0,0.0,0.0,0.0,0.0,0.0,0.0,0.0,0.0,0.0,0.0,0.0,0.0,0.0,0.3403,0.639,0.731,1.0848,1.3464,1.3565,1.352,1.3653,1.3499,1.351,1.3531,1.3597,1.3602,1.3602,1.3602,1.3602,1.3602,1.3602,1.3602,1.3602,1.3602,1.3602,1.3602,1.3602,1.3602,1.3635,1.3689,1.3754,1.3814,1.3874,1.3988,1.4042,1.4048,1.4167,1.4222,1.4222,1.4292,1.432,1.432,1.432,1.4276,1.4211,1.4021,1.3885,1.3776,1.3645,1.364,1.3689,1.3689,1.3509,1.3103,1.1506,1.0424,0.9364,0.7659,0.5322,0.3407,0.341,0.278,0.237,0.2618,0.2195,0.1768,0.2462,0.2013,0.1559,0.1552,0.1546,0.2193,0.4133,0.5869,0.6943,0.6689,0.6256,0.5607,0.4313,0.3666,0.2585,0.0858,0.0214,0.0,0.0,0.0,0.0,0.0,0.0,0.0,0.0,0.0,0.0,0.0,0.0,0.0,0.0,0.0,0.0,0.0424,0.0,0.0,0.0,0.0,0.0,0.0,0.0,0.0,0.0,0.0,0.0,0.0,0.0,0.0326,0.1351,0.6313,1.0821,1.2543,1.3035,1.3355,1.3427,1.3433,1.3569,1.3553,1.3564,1.3575,1.3575,1.3591,1.3607,1.3819,1.3813,1.3813,1.3813,1.3813,1.3813,1.3813,1.3602,1.3602,1.3813,1.3813,1.3879,1.4001,1.4017,1.4089,1.4211,1.4113,1.4167,1.4178,1.4276,1.432,1.432,1.432,1.432,1.432,1.432,1.4238,1.4124,1.3977,1.3787,1.3607,1.3629,1.3705,1.3792,1.3809,1.3879,1.3917,1.3077,1.1529,1.0032,1.0236,0.8316,0.6187,0.5754,0.5552,0.5156,0.436,0.4384,0.441,0.4251,0.4264,0.4256,0.4,0.4218,0.465,0.57,0.6795,0.7886,0.831,0.787,0.7,0.5685,0.4376,0.3053,0.1732,0.0649,0.0,0.0,0.0,0.0,0.0,0.0,0.0,0.0,0.0,0.0,0.0,0.0,0.0,0.0,0.0,0.0,0.0425,0.0,0.0,0.0,0.0,0.0,0.0,0.0,0.0,0.0,0.0,0.0,0.0,0.0,0.1859,0.7352,1.0528,1.2319,1.1921,1.2732,1.3405,1.3107,1.3308,1.3406,1.3303,1.339,1.345,1.345,1.3548,1.3819,1.4241,1.4241,1.4446,1.5072,1.5072,1.5072,1.5072,1.4024,1.3813,1.4241,1.4241,1.4515,1.5283,1.4746,1.465,1.4781,1.4459,1.4292,1.4292,1.4309,1.432,1.432,1.432,1.432,1.432,1.432,1.4238,1.4108,1.389,1.3722,1.3624,1.3727,1.377,1.3803,1.3901,1.3944,1.395,1.3912,1.3253,1.2365,1.1415,0.9894,0.8804,0.8103,0.7321,0.6753,0.6553,0.73,0.7828,0.6948,0.7401,0.7625,0.582,0.6937,0.8036,0.7965,0.9069,0.9704,0.875,0.8521,0.8085,0.6774,0.5685,0.4155,0.1966,0.0655,0.0,0.0,0.0,0.0,0.0,0.0,0.0,0.0,0.0,0.0,0.0,0.0,0.0,0.0,0.0,0.0,0.0426,0.0,0.03,0.1246,0.1403,0.1392,0.14,0.1395,0.1081,0.0154,0.0,0.0,0.0,0.1861,0.4917,0.8998,1.0535,1.1226,1.1658,1.2336,1.2931,1.3075,1.3221,1.3298,1.3243,1.3352,1.3423,1.3423,1.3747,1.4241,1.4452,1.4657,1.5078,1.5283,1.5283,1.5283,1.5283,1.4862,1.4657,1.4868,1.4868,1.5187,1.5607,1.5452,1.5373,1.5563,1.5413,1.4992,1.4758,1.4758,1.4536,1.432,1.432,1.432,1.4309,1.4167,1.408,1.4004,1.377,1.3694,1.3711,1.377,1.3874,1.3988,1.4037,1.4097,1.4151,1.4151,1.3622,1.3073,1.2374,1.128,1.0404,1.0148,0.9551,0.8964,0.9006,0.9076,0.8916,0.8734,0.83,0.7849,0.7625,0.8067,0.8734,0.9149,1.0028,1.0456,0.9966,0.9521,0.8862,0.7314,0.5986,0.4427,0.1983,0.0661,0.0,0.0,0.0,0.0,0.0,0.0,0.0,0.0,0.0,0.0,0.0,0.0,0.0,0.0,0.0,0.0,0.0284,0.0,0.0457,0.2216,0.3029,0.3342,0.319,0.3198,0.2883,0.1603,0.098,0.0667,0.0681,0.4226,0.7688,0.9175,0.9807,1.0555,1.1773,1.2135,1.2653,1.3031,1.3129,1.32,1.32,1.3308,1.339,1.3625,1.4167,1.4452,1.4868,1.5289,1.55,1.571,1.571,1.571,1.571,1.571,1.571,1.55,1.5531,1.5673,1.6131,1.5946,1.6094,1.6317,1.6096,1.5862,1.5424,1.5202,1.4986,1.4547,1.432,1.432,1.4292,1.408,1.3983,1.3934,1.3749,1.3732,1.3798,1.3852,1.3988,1.414,1.4167,1.4249,1.432,1.432,1.3969,1.3378,1.3352,1.2689,1.1813,1.179,1.1365,1.0963,1.104,1.0412,0.9997,1.0516,0.9407,0.8741,0.9411,0.9184,0.9184,1.0085,1.0751,1.1201,1.0978,1.0528,0.9634,0.7843,0.6281,0.4251,0.1558,0.0445,0.0,0.0,0.0,0.0,0.0,0.0,0.0,0.0,0.0,0.0,0.0,0.0,0.0,0.0,0.0,0.0,0.0,0.0,0.0452,0.2213,0.3899,0.5124,0.5179,0.523,0.5097,0.5102,0.3632,0.2643,0.2855,0.6475,0.9191,0.8592,1.0277,1.1773,1.2063,1.2584,1.3031,1.2917,1.3009,1.3086,1.3086,1.3183,1.3504,1.425,1.4377,1.4874,1.592,1.592,1.6341,1.6768,1.6978,1.6978,1.6978,1.6978,1.6558,1.6131,1.6273,1.6628,1.721,1.6909,1.6834,1.6982,1.6317,1.6089,1.6089,1.5424,1.5197,1.4975,1.4547,1.432,1.4309,1.4178,1.4053,1.3955,1.3939,1.3868,1.3825,1.4042,1.4124,1.4167,1.4276,1.432,1.432,1.432,1.4309,1.4265,1.4151,1.369,1.3216,1.3114,1.2515,1.2363,1.2377,1.2237,1.2298,1.2312,1.2307,1.1871,1.142,1.1416,1.1193,1.0751,1.1643,1.2084,1.1643,1.142,1.0751,0.8961,0.6724,0.4035,0.0449,0.0,0.0,0.0,0.0,0.0,0.0,0.0,0.0,0.0,0.0,0.0,0.0,0.0,0.0,0.0,0.0,0.0,0.0,0.0,0.046,0.222,0.3121,0.4391,0.6799,0.738,0.745,0.7683,0.5149,0.3438,0.4792,0.6461,0.7984,0.9017,1.0132,1.1244,1.2079,1.2526,1.2939,1.2895,1.2928,1.2988,1.3064,1.3172,1.3498,1.425,1.4796,1.5289,1.6131,1.6558,1.6768,1.6978,1.6978,1.6978,1.6978,1.7066,1.7114,1.6684,1.6956,1.711,1.7561,1.7404,1.7292,1.7646,1.7418,1.6988,1.6533,1.6089,1.5652,1.5197,1.4536,1.432,1.4309,1.4178,1.4108,1.4053,1.3983,1.3977,1.4021,1.4108,1.4195,1.4265,1.4309,1.432,1.432,1.432,1.432,1.4309,1.4265,1.3969,1.369,1.3638,1.3606,1.3388,1.3466,1.3077,1.2901,1.2965,1.2762,1.2534,1.2307,1.2084,1.2084,1.1871,1.2534,1.2762,1.2307,1.1871,1.0978,0.9184,0.5601,0.2243,0.0224,0.0,0.0,0.0,0.0,0.0,0.0,0.0,0.0,0.0,0.0,0.0,0.0,0.0,0.0,0.0,0.0,0.0,0.0578,0.1196,0.1854,0.3029,0.3471,0.4265,0.7108,0.7735,0.8006,0.8977,0.6404,0.467,0.5895,0.6606,0.7688,0.926,1.0175,1.1082,1.2284,1.269,1.289,1.289,1.289,1.295,1.3107,1.3399,1.3721,1.451,1.5234,1.571,1.6341,1.6768,1.6978,1.6978,1.6978,1.6978,1.6978,1.7121,1.7216,1.7263,1.7311,1.7446,1.765,1.7704,1.7772,1.786,1.786,1.7652,1.7197,1.6533,1.5868,1.5197,1.4536,1.432,1.4309,1.4222,1.4167,1.414,1.408,1.4097,1.414,1.4178,1.4249,1.432,1.432,1.432,1.4309,1.4276,1.4265,1.4249,1.4222,1.4167,1.4124,1.4097,1.4015,1.3977,1.4069,1.3638,1.3455,1.3575,1.3374,1.294,1.2752,1.2762,1.2762,1.2534,1.2975,1.3202,1.2762,1.2312,1.1193,0.9184,0.4933,0.1794,0.0224,0.0,0.0,0.0,0.0,0.0,0.0,0.0,0.0,0.0,0.0,0.0,0.0,0.0,0.0,0.0,0.0,0.0,0.1878,0.3567,0.5061,0.4984,0.5297,0.545,0.5687,0.5649,0.6288,0.8532,0.7788,0.6415,0.6474,0.7718,0.8757,0.9534,1.0613,1.1683,1.269,1.289,1.289,1.289,1.289,1.2982,1.3216,1.3654,1.4376,1.5265,1.571,1.6341,1.6978,1.6978,1.6978,1.6978,1.6978,1.6978,1.6978,1.7121,1.727,1.7419,1.7575,1.765,1.765,1.7792,1.786,1.786,1.786,1.786,1.786,1.7197,1.6317,1.5197,1.4536,1.432,1.432,1.432,1.4238,1.4151,1.4276,1.4238,1.4167,1.4276,1.432,1.432,1.432,1.432,1.4292,1.4167,1.414,1.4108,1.3988,1.4042,1.4108,1.3983,1.3955,1.3955,1.3955,1.3955,1.3993,1.4108,1.414,1.3958,1.3404,1.343,1.3202,1.2539,1.2975,1.343,1.343,1.2762,1.1643,0.9202,0.5831,0.2692,0.0224,0.0,0.0,0.0,0.0,0.0,0.0,0.0,0.0,0.0,0.0,0.0,0.0,0.0,0.0,0.0,0.0,0.0,0.1844,0.3619,0.0,0.6843,0.7373,0.7359,0.6073,0.562,0.5534,0.4934,0.693,0.8753,0.8822,0.9493,1.0145,1.073,1.141,1.2084,1.289,1.289,1.289,1.289,1.289,1.2982,1.3216,1.3654,1.4376,1.5265,1.571,1.6341,1.6978,1.6978,1.6978,1.6978,1.6978,1.6978,1.6978,1.7229,1.7372,1.7426,1.7684,1.7792,1.7806,1.7846,1.786,1.786,1.786,1.786,1.786,1.7197,1.6317,1.5197,1.4975,1.4758,1.4309,1.4222,1.4222,1.4265,1.4205,1.4222,1.4265,1.4205,1.4195,1.4178,1.4097,1.4069,1.4053,1.4021,1.401,1.3983,1.3868,1.3863,1.3885,1.3847,1.377,1.3732,1.3819,1.3836,1.3874,1.3988,1.408,1.4151,1.3969,1.4038,1.387,1.388,1.387,1.3658,1.2985,1.1643,1.0301,0.9202,0.5831,0.2692,0.0224,0.0,0.0,0.0,0.0,0.0,0.0,0.0,0.0,0.0,0.0,0.0,0.0,0.0,0.0,0.0,0.0,0.0,0.299,0.501,0.6776,0.8065,0.8428,0.7874,0.5303,0.4617,0.4868,0.5606,0.8207,1.0228,1.0106,1.0365,1.0799,1.1391,1.1838,1.2289,1.289,1.289,1.289,1.289,1.289,1.2982,1.3421,1.4065,1.4789,1.5475,1.6131,1.6558,1.6978,1.6978,1.6978,1.6978,1.7032,1.7066,1.7066,1.7365,1.7514,1.7514,1.7758,1.786,1.786,1.786,1.786,1.786,1.786,1.786,1.786,1.7197,1.6533,1.5862,1.5424,1.4958,1.4465,1.4167,1.4151,1.4167,1.4097,1.4108,1.4167,1.4097,1.4069,1.4053,1.3977,1.3955,1.3944,1.3901,1.389,1.3863,1.3743,1.3716,1.3716,1.3716,1.3656,1.3624,1.37,1.3716,1.3749,1.3868,1.3988,1.408,1.4124,1.4238,1.432,1.432,1.432,1.387,1.2762,1.1193,0.9634,0.8523,0.5383,0.2692,0.0224,0.0,0.0,0.0,0.0,0.0,0.0,0.0,0.0,0.0,0.0,0.0,0.0,0.0,0.0,0.0,0.0,0.0,0.4905,0.704,0.8597,0.8602,0.8405,0.7101,0.3594,0.3246,0.4804,0.9029,1.0711,1.1197,1.0881,1.069,1.0881,1.2084,1.2084,1.2289,1.289,1.289,1.309,1.3084,1.3084,1.3385,1.4042,1.4681,1.5208,1.6111,1.6558,1.6978,1.6978,1.6978,1.6985,1.6998,1.7127,1.7202,1.7216,1.75,1.765,1.765,1.7792,1.786,1.786,1.786,1.786,1.786,1.786,1.786,1.786,1.7418,1.6988,1.6982,1.564,1.5127,1.5018,1.4349,1.4053,1.3955,1.3944,1.395,1.3955,1.3944,1.3939,1.3939,1.3928,1.3923,1.3901,1.3798,1.377,1.3743,1.3635,1.3602,1.3602,1.3602,1.3602,1.3602,1.3602,1.3602,1.3635,1.3749,1.3874,1.3993,1.4097,1.4238,1.432,1.432,1.432,1.387,1.2762,1.142,0.9634,0.7398,0.4933,0.2467,0.0224,0.0,0.0,0.0,0.0,0.0,0.0,0.0,0.0,0.0,0.0,0.0,0.0,0.0,0.0,0.0,0.0,0.0,0.4814,0.6894,0.8522,0.8557,0.6457,0.374,0.1149,0.4653,0.9017,1.1713,1.1545,1.1178,1.2279,1.2094,1.1884,1.2684,1.269,1.289,1.349,1.349,1.3684,1.4083,1.4077,1.4385,1.4656,1.5302,1.5621,1.6111,1.6558,1.6978,1.6978,1.6978,1.7032,1.7141,1.7175,1.7249,1.7372,1.7555,1.765,1.765,1.7792,1.786,1.786,1.786,1.786,1.786,1.786,1.786,1.786,1.786,1.7424,1.6982,1.6096,1.5575,1.5,1.4249,1.3977,1.3944,1.3857,1.3879,1.3944,1.3852,1.3825,1.3803,1.3711,1.3678,1.3673,1.3651,1.3645,1.364,1.3613,1.3602,1.3602,1.3602,1.3602,1.3602,1.3602,1.3602,1.3613,1.364,1.3814,1.3966,1.3993,1.4178,1.432,1.432,1.432,1.387,1.2762,1.1193,0.9407,0.7398,0.4259,0.1567,0.0222,0.0,0.0,0.0,0.0,0.0,0.0,0.0,0.0,0.0,0.0,0.0,0.0,0.0,0.0,0.0,0.0,0.0,0.6076,0.7874,0.8673,0.7699,0.5254,0.2865,0.1744,0.608,1.0716,1.1813,1.1629,1.1434,1.2284,1.2489,1.2484,1.289,1.289,1.309,1.369,1.369,1.3889,1.4476,1.4476,1.4787,1.5271,1.5507,1.5828,1.6531,1.6768,1.7012,1.708,1.708,1.7148,1.7297,1.7372,1.7446,1.7528,1.7684,1.7758,1.7758,1.7758,1.7717,1.765,1.7792,1.786,1.786,1.786,1.786,1.786,1.786,1.7639,1.7424,1.6526,1.5753,1.5137,1.4416,1.3885,1.3781,1.3722,1.3738,1.3776,1.3716,1.37,1.3689,1.3624,1.3645,1.3689,1.3689,1.3732,1.376,1.3705,1.3689,1.3678,1.3618,1.3602,1.3602,1.3602,1.3602,1.3602,1.3602,1.3792,1.3955,1.3955,1.4151,1.432,1.432,1.432,1.387,1.2975,1.1643,0.985,0.8067,0.5159,0.2458,0.0222,0.0,0.0,0.0,0.0,0.0,0.0,0.0,0.0,0.0,0.0,0.0,0.0,0.0,0.0,0.0,0.0,0.0,0.655,0.824,0.8602,0.6602,0.4543,0.3292,0.352,0.7508,1.1182,1.1478,1.1698,1.1899,1.2289,1.269,1.289,1.289,1.289,1.329,1.369,1.3889,1.4083,1.4676,1.49,1.5013,1.5686,1.5936,1.6267,1.6958,1.6978,1.7039,1.7182,1.7195,1.7277,1.7453,1.7582,1.7663,1.7684,1.7812,1.786,1.786,1.7717,1.7568,1.7433,1.767,1.7812,1.7826,1.7846,1.786,1.786,1.786,1.786,1.7632,1.6514,1.5918,1.5476,1.4366,1.3792,1.3602,1.3602,1.3602,1.3607,1.3629,1.3624,1.3613,1.3651,1.3722,1.3792,1.3814,1.3885,1.3934,1.3841,1.3819,1.3787,1.3667,1.3635,1.3629,1.3607,1.3602,1.3602,1.3602,1.3792,1.3972,1.4015,1.4178,1.432,1.432,1.432,1.4092,1.343,1.2312,1.0751,0.8734,0.6724,0.4248,0.0665,0.0222,0.0,0.0,0.0,0.0,0.0,0.0,0.0,0.0,0.0,0.0,0.0,0.0,0.0,0.0,0.0,0.0,0.3188,0.5868,0.8278,0.6532,0.4565,0.3679,0.5671,0.8095,1.037,1.2284,1.23,1.2289,1.269,1.289,1.289,1.289,1.329,1.369,1.4277,1.4881,1.528,1.5884,1.5998,1.6138,1.6306,1.644,1.6795,1.6971,1.6978,1.7039,1.7182,1.7195,1.7324,1.7609,1.7629,1.7704,1.7826,1.7846,1.786,1.786,1.7717,1.7568,1.7419,1.746,1.7555,1.7684,1.7812,1.786,1.786,1.786,1.7652,1.6969,1.6175,1.5603,1.481,1.4062,1.3722,1.3602,1.3602,1.3602,1.3624,1.3727,1.3689,1.364,1.3847,1.3852,1.3809,1.3906,1.3944,1.3955,1.3939,1.3934,1.3906,1.3792,1.3765,1.3732,1.3629,1.3602,1.3602,1.3602,1.3792,1.4026,1.4238,1.4292,1.432,1.432,1.432,1.4092,1.343,1.2312,1.0978,0.9184,0.7849,0.559,0.1773,0.0665,0.0,0.0,0.0,0.0,0.0,0.0,0.0,0.0,0.0,0.0,0.0,0.0,0.0,0.0,0.0,0.0,0.3611,0.5452,0.6874,0.625,0.5478,0.5423,0.7827,0.9123,1.0227,1.25,1.27,1.2684,1.289,1.289,1.289,1.289,1.329,1.3889,1.4476,1.4875,1.5479,1.6083,1.6218,1.6368,1.651,1.6659,1.6849,1.708,1.71,1.7202,1.7439,1.7446,1.7548,1.7758,1.7772,1.7792,1.786,1.786,1.7826,1.7738,1.7589,1.7439,1.7297,1.7385,1.7507,1.765,1.7717,1.7792,1.786,1.786,1.7646,1.6982,1.6255,1.5486,1.4925,1.4222,1.3863,1.3705,1.3705,1.3662,1.3624,1.3749,1.3749,1.3738,1.3906,1.3966,1.3993,1.4042,1.4108,1.414,1.408,1.4053,1.4031,1.3912,1.3879,1.3868,1.3814,1.37,1.3645,1.3776,1.3885,1.4031,1.4276,1.432,1.432,1.432,1.432,1.4097,1.387,1.2762,1.1643,1.0077,0.8967,0.6706,0.3104,0.1108,0.0,0.0,0.0,0.0,0.0,0.0,0.0,0.0,0.0,0.0,0.0,0.0,0.0,0.0,0.0,0.0,0.3861,0.515,0.5786,0.6467,0.6706,0.731,0.9354,0.9711,1.0245,1.25,1.2901,1.289,1.289,1.289,1.289,1.309,1.3484,1.4083,1.4676,1.5081,1.5691,1.6137,1.6273,1.6422,1.6564,1.672,1.6917,1.7175,1.7195,1.7324,1.7629,1.765,1.7717,1.786,1.786,1.786,1.786,1.786,1.7792,1.765,1.7534,1.7399,1.7256,1.7365,1.7507,1.765,1.7684,1.7758,1.786,1.786,1.7424,1.6754,1.6268,1.5545,1.4793,1.4315,1.3983,1.383,1.383,1.377,1.3716,1.3836,1.3857,1.3857,1.4004,1.4097,1.414,1.4178,1.4249,1.4309,1.4205,1.4178,1.4151,1.4031,1.4004,1.3993,1.3961,1.3819,1.3754,1.3961,1.4004,1.4069,1.4276,1.432,1.432,1.432,1.432,1.432,1.432,1.3202,1.2093,1.0755,0.9645,0.7611,0.4004,0.1334,0.0,0.0,0.0,0.0,0.0,0.0,0.0,0.0,0.0,0.0,0.0,0.0,0.0,0.0,0.0,0.0,0.2133,0.4037,0.5951,0.791,0.8766,0.9069,0.9628,0.9798,1.0347,1.2474,1.2895,1.289,1.289,1.289,1.309,1.349,1.4083,1.4676,1.528,1.5678,1.6137,1.6279,1.6422,1.6571,1.672,1.6876,1.7032,1.7182,1.7195,1.7324,1.7629,1.765,1.7717,1.786,1.786,1.786,1.786,1.786,1.7792,1.765,1.765,1.7555,1.7405,1.7419,1.7507,1.765,1.7792,1.786,1.786,1.786,1.7197,1.6077,1.5949,1.5243,1.4124,1.401,1.3955,1.395,1.395,1.3944,1.3955,1.408,1.4042,1.3993,1.4238,1.4222,1.4167,1.4276,1.432,1.432,1.4309,1.4309,1.4276,1.4151,1.4124,1.4097,1.3983,1.3944,1.3977,1.4108,1.4124,1.4167,1.4292,1.432,1.432,1.432,1.432,1.432,1.432,1.3202,1.2093,1.0755,0.9645,0.7625,0.3811,0.1346,0.0,0.0,0.0,0.0,0.0,0.0,0.0,0.0,0.0,0.0,0.0,0.0,0.0,0.0,0.0,0.0,0.0734,0.2165,0.4225,0.7465,0.8493,0.9186,1.0954,1.1615,1.2046,1.277,1.2846,1.2912,1.2993,1.314,1.349,1.369,1.4482,1.5081,1.528,1.5678,1.6137,1.6293,1.6435,1.6578,1.6734,1.689,1.708,1.7317,1.7338,1.7473,1.7772,1.7792,1.7812,1.786,1.786,1.786,1.786,1.786,1.7846,1.7792,1.7684,1.7623,1.7568,1.7568,1.7595,1.765,1.7806,1.786,1.786,1.786,1.7197,1.6089,1.6047,1.5366,1.4249,1.4211,1.414,1.4069,1.4069,1.4021,1.3977,1.4097,1.4108,1.4108,1.4265,1.4292,1.4265,1.4309,1.432,1.432,1.432,1.432,1.4309,1.4265,1.4249,1.4238,1.4195,1.4069,1.3993,1.4108,1.414,1.4178,1.4292,1.432,1.432,1.432,1.432,1.432,1.432,1.3202,1.2093,1.0755,0.9645,0.7631,0.3815,0.1347,0.0,0.0,0.0,0.0,0.0,0.0,0.0,0.0,0.0,0.0,0.0,0.0,0.0,0.0,0.0,0.0,0.0852,0.1636,0.3108,0.6314,0.78,0.885,1.0604,1.1329,1.1838,1.2629,1.2957,1.3079,1.3239,1.377,1.3901,1.3942,1.4713,1.528,1.5479,1.5884,1.6157,1.6361,1.6463,1.6605,1.6809,1.6917,1.708,1.7324,1.7392,1.7528,1.7772,1.7846,1.786,1.786,1.786,1.786,1.786,1.786,1.786,1.786,1.7772,1.7717,1.7717,1.7717,1.7717,1.7717,1.7826,1.786,1.786,1.786,1.7418,1.6323,1.6096,1.543,1.4536,1.432,1.4265,1.4195,1.4195,1.4151,1.4097,1.4167,1.4195,1.4205,1.4292,1.432,1.432,1.432,1.432,1.432,1.432,1.432,1.432,1.432,1.432,1.432,1.432,1.4195,1.4097,1.4178,1.4195,1.4222,1.4309,1.432,1.432,1.432,1.432,1.432,1.432,1.3202,1.2093,1.0755,0.9645,0.7631,0.3815,0.1347,0.0,0.0,0.0,0.0,0.0,0.0,0.0,0.0,0.0,0.0,0.0,0.0,0.0,0.0,0.0,0.0,0.0,0.0,0.0,0.4588,0.6595,0.8121,0.8565,0.8907,0.9812,1.2251,1.2825,1.3189,1.3828,1.4172,1.4531,1.4672,1.4975,1.5479,1.6083,1.6083,1.6198,1.6483,1.6524,1.6646,1.6951,1.6978,1.7039,1.7182,1.7331,1.748,1.765,1.7792,1.786,1.786,1.786,1.786,1.786,1.786,1.786,1.786,1.786,1.786,1.786,1.786,1.786,1.786,1.786,1.786,1.786,1.786,1.7424,1.6982,1.6317,1.564,1.5197,1.4547,1.432,1.432,1.432,1.432,1.432,1.432,1.432,1.432,1.432,1.432,1.432,1.432,1.432,1.432,1.432,1.432,1.432,1.432,1.432,1.432,1.432,1.432,1.432,1.432,1.432,1.432,1.432,1.432,1.432,1.432,1.432,1.432,1.432,1.3202,1.2093,1.0751,0.9645,0.7631,0.3815,0.1347,0.0,0.0,0.0,0.0,0.0,0.0,0.0,0.0,0.0,0.0,0.0,0.0,0.0,0.0,0.0,0.0,0.5388,0.0,0.0,0.0,0.0,0.0,0.8113,0.8493,0.922,1.0954,1.2841,1.3988,1.3828,1.4653,1.531,1.5551,1.5708,1.5884,1.6083,1.6178,1.6313,1.6503,1.6619,1.6761,1.6965,1.6978,1.7039,1.7182,1.7229,1.7372,1.7629,1.7792,1.786,1.786,1.786,1.786,1.786,1.786,1.786,1.786,1.786,1.786,1.786,1.786,1.786,1.786,1.786,1.786,1.786,1.786,1.7197,1.6317,1.6096,1.5424,1.4531,1.432,1.432,1.432,1.432,1.432,1.432,1.432,1.432,1.432,1.432,1.432,1.432,1.432,1.432,1.432,1.432,1.432,1.432,1.432,1.432,1.432,1.432,1.432,1.432,1.432,1.432,1.432,1.432,1.432,1.432,1.432,1.432,1.4097,1.3658,1.2539,1.1193,0.9634,0.9202,0.7631,0.3815,0.1347,0.0,0.0,0.0,0.0,0.0,0.0,0.0,0.0,0.0,0.0,0.0,0.0,0.0,0.0,0.0,0.0,0.7346,0.636,0.5737,0.6759,0.0,0.0,0.7791,0.8174,0.8913,1.0988,1.25,1.3673,1.418,1.4837,1.5525,1.5812,1.5998,1.6049,1.6239,1.6341,1.6449,1.6598,1.6693,1.6809,1.6965,1.6978,1.7012,1.71,1.7161,1.7297,1.7541,1.7629,1.7684,1.7684,1.7738,1.7772,1.7772,1.7826,1.786,1.786,1.786,1.786,1.786,1.786,1.786,1.786,1.786,1.786,1.786,1.7652,1.721,1.6323,1.5868,1.5202,1.4536,1.4325,1.432,1.432,1.432,1.432,1.432,1.432,1.432,1.432,1.432,1.432,1.432,1.432,1.432,1.432,1.432,1.432,1.432,1.432,1.432,1.432,1.432,1.432,1.432,1.432,1.432,1.432,1.432,1.432,1.432,1.387,1.387,1.3652,1.2762,1.1643,1.0528,0.9407,0.875,0.7407,0.5387,0.2021,0.0,0.0,0.0,0.0,0.0,0.0,0.0,0.0,0.0,0.0,0.0,0.0,0.0,0.0,0.0,0.0,0.8681,0.7926,0.7274,0.7295,0.7269,0.0,0.7648,0.8019,0.9103,1.1522,1.2068,1.2614,1.4316,1.4803,1.5301,1.5988,1.5934,1.6008,1.6435,1.651,1.6578,1.6734,1.6768,1.6829,1.6965,1.6978,1.6978,1.6978,1.7114,1.7249,1.7385,1.7412,1.7419,1.7419,1.7555,1.7629,1.765,1.7772,1.7846,1.786,1.786,1.786,1.786,1.786,1.786,1.786,1.786,1.786,1.786,1.721,1.6982,1.676,1.5652,1.5197,1.4975,1.4547,1.432,1.432,1.432,1.432,1.432,1.432,1.432,1.432,1.432,1.432,1.432,1.432,1.432,1.432,1.432,1.432,1.432,1.432,1.432,1.432,1.432,1.432,1.432,1.432,1.432,1.432,1.432,1.432,1.4092,1.343,1.3202,1.2762,1.1643,1.0528,0.9634,0.9195,0.8076,0.718,0.6737,0.2694,0.0,0.0,0.0,0.0,0.0,0.0,0.0,0.0,0.0,0.0,0.0,0.0,0.0,0.0,0.0,0.0,0.9456,0.9029,0.8876,0.0,0.0,0.0,0.9346,0.9592,0.9968,1.0816,1.1384,1.2113,1.3598,1.4759,1.5588,1.6091,1.6007,1.6172,1.6307,1.6449,1.6578,1.6734,1.6863,1.6944,1.6978,1.6978,1.6978,1.6978,1.7114,1.7202,1.7236,1.7351,1.7419,1.7419,1.7446,1.7521,1.765,1.7684,1.7758,1.786,1.786,1.786,1.786,1.786,1.786,1.786,1.786,1.786,1.786,1.6754,1.6317,1.6096,1.543,1.4986,1.4547,1.432,1.432,1.432,1.432,1.432,1.432,1.432,1.432,1.432,1.432,1.432,1.432,1.432,1.432,1.432,1.432,1.432,1.432,1.432,1.432,1.432,1.432,1.432,1.432,1.432,1.432,1.432,1.432,1.387,1.343,1.343,1.2534,1.142,1.0301,0.9862,0.8967,0.6951,0.6956,0.6513,0.4493,0.1572,0.0,0.0,0.0,0.0,0.0,0.0,0.0,0.0,0.0,0.0,0.0,0.0,0.0,0.0,0.0,0.0,0.0,0.0,0.0,1.0441,0.0,0.0,0.0,1.1239,1.1212,1.079,1.092,1.1378,1.2032,1.279,1.3598,1.5202,1.5561,1.5626,1.5883,1.6137,1.6469,1.6619,1.6707,1.6781,1.6856,1.6795,1.6754,1.6754,1.689,1.6971,1.6971,1.7121,1.7202,1.7202,1.727,1.7378,1.7534,1.7609,1.7717,1.786,1.786,1.786,1.786,1.786,1.786,1.786,1.786,1.786,1.786,1.6533,1.6089,1.6089,1.5197,1.4536,1.432,1.432,1.432,1.432,1.432,1.432,1.432,1.432,1.432,1.432,1.432,1.432,1.432,1.432,1.432,1.432,1.432,1.432,1.432,1.432,1.4276,1.4238,1.4238,1.4178,1.414,1.414,1.3915,1.3733,1.3854,1.3652,1.2975,1.1857,1.1643,1.0978,0.8744,0.8523,0.7849,0.6732,0.5838,0.4493,0.2021,0.0673,0.0,0.0,0.0,0.0,0.0,0.0,0.0,0.0,0.0,0.0,0.0,0.0,0.0,0.0,0.0,0.0,0.0,0.0,0.0,0.0,0.0,1.245,0.0,0.0,0.0,1.0612,1.047,1.0484,1.0422,1.0436,1.1333,1.3871,1.4576,1.4886,1.5121,1.5712,1.6008,1.6354,1.6395,1.6463,1.6646,1.6578,1.6524,1.6524,1.6666,1.6748,1.6748,1.6897,1.6978,1.6978,1.7093,1.7236,1.7419,1.7541,1.7684,1.786,1.786,1.786,1.786,1.786,1.786,1.786,1.7826,1.7846,1.786,1.6501,1.6059,1.6089,1.4758,1.432,1.432,1.432,1.432,1.432,1.432,1.432,1.432,1.432,1.432,1.432,1.432,1.432,1.432,1.432,1.432,1.432,1.432,1.4309,1.4276,1.4276,1.4195,1.4097,1.4097,1.4026,1.3955,1.3955,1.3522,1.3144,1.3338,1.294,1.2061,1.0496,1.0751,1.0093,0.7183,0.6956,0.6956,0.6513,0.4269,0.2021,0.0224,0.0,0.0,0.0,0.0,0.0,0.0,0.0,0.0,0.0,0.0,0.0,0.0,0.0,0.0,0.0,0.0,0.0,0.0,0.0,0.0,0.0,1.2379,0.0,0.0,0.0,0.9687,0.9534,0.0,0.9427,0.9438,0.0,0.0,1.2414,1.3244,1.3539,1.3591,1.436,1.5287,1.6,1.6131,1.6042,1.6334,1.6456,1.6524,1.6524,1.6666,1.6748,1.6748,1.6897,1.6978,1.6978,1.6998,1.7141,1.7419,1.7439,1.7589,1.786,1.786,1.786,1.786,1.786,1.786,1.786,1.7717,1.7738,1.786,1.6401,1.5979,1.6089,1.4758,1.432,1.432,1.432,1.432,1.432,1.432,1.432,1.432,1.432,1.432,1.432,1.432,1.432,1.432,1.432,1.432,1.432,1.432,1.4238,1.4151,1.4151,1.4069,1.3977,1.3977,1.3966,1.3955,1.3955,1.3522,1.3093,1.3119,1.1449,1.0412,1.1528,0.9382,0.7183,0.5831,0.6513,0.6288,0.4267,0.1796,0.0224,0.0,0.0,0.0,0.0,0.0,0.0,0.0,0.0,0.0,0.0,0.0,0.0,0.0,0.0,0.0,0.0,0.0,0.0,0.0,0.0,0.0,0.0,0.0,0.0,1.2325,0.0,0.9564,0.0,0.0,0.0,0.0,0.0,0.0,0.0,1.2403,1.2901,1.2821,1.3501,1.4295,1.5059,1.5403,1.5519,1.5628,1.5947,1.6062,1.5893,1.6259,1.6497,1.6497,1.6802,1.6978,1.6978,1.6978,1.7121,1.7419,1.7419,1.7568,1.786,1.786,1.786,1.786,1.786,1.7812,1.7738,1.767,1.7684,1.7738,1.635,1.5967,1.6089,1.4758,1.432,1.432,1.432,1.432,1.432,1.432,1.432,1.432,1.432,1.432,1.432,1.432,1.432,1.432,1.432,1.4265,1.4205,1.4205,1.4124,1.4031,1.4031,1.3944,1.3857,1.3857,1.3803,1.3754,1.3754,1.3108,1.2467,1.2467,1.0878,0.9667,0.9678,0.7751,0.5791,0.4457,0.358,0.2694,0.1572,0.0673,0.0,0.0,0.0,0.0,0.0,0.0,0.0,0.0,0.0,0.0,0.0,0.0,0.0,0.0,0.0,0.0,0.0,0.0,0.0,1.3023,0.0,0.0,0.0,0.0,0.0,0.0,0.0,0.0,0.0,0.0,0.0,0.0,0.0,0.0,0.0,0.0,1.2311,1.2251,1.2576,1.3171,1.3865,1.4523,1.4908,0.0,1.5404,1.5615,1.5486,1.5995,1.6327,1.6368,1.6761,1.6978,1.6978,1.6978,1.71,1.7358,1.7399,1.7548,1.7812,1.7846,1.786,1.786,1.7826,1.7758,1.765,1.7561,1.7568,1.7425,1.6288,1.5931,1.6089,1.473,1.4265,1.4265,1.4265,1.4265,1.4265,1.4238,1.4238,1.4276,1.4309,1.4292,1.4265,1.4265,1.4249,1.4222,1.4222,1.4151,1.408,1.408,1.3999,1.3912,1.3912,1.3819,1.3738,1.3738,1.3667,1.3602,1.3602,1.2757,1.2122,1.1911,1.0338,0.8709,0.7843,0.5926,0.3972,0.2871,0.111,0.0,0.0,0.0,0.0,0.0,0.0,0.0,0.0,0.0,0.0,0.0,0.0,0.0,0.0,0.0,0.0,0.0,0.0,0.0,0.0,0.0,0.0,0.0,0.0,0.0,1.339,0.0,0.0,0.0,0.0,1.1904,0.0,0.0,0.0,0.0,0.0,0.0,0.0,0.0,0.0,0.0,1.171,1.1946,1.2484,1.3601,0.0,0.0,1.4943,1.5323,0.0,1.6049,1.6368,1.651,1.6809,1.6978,1.6978,1.6978,1.7053,1.7195,1.7344,1.75,1.765,1.7792,1.786,1.786,1.7717,1.765,1.7629,1.7338,1.7372,1.7425,1.6187,1.5851,1.6071,1.4629,1.414,1.414,1.414,1.414,1.4124,1.401,1.4048,1.4167,1.4276,1.4238,1.414,1.414,1.4069,1.3966,1.3966,1.3966,1.3961,1.3961,1.3879,1.3792,1.3792,1.37,1.3607,1.3607,1.3607,1.3602,1.3602,1.318,1.2545,1.1911,0.9217,0.6908,0.691,0.4134,0.1532,0.0219,0.0,0.0,0.0,0.0,0.0,0.0,0.0,0.0,0.0,0.0,0.0,0.0,0.0,0.0,0.0,0.0,0.0,0.0,0.0,0.0,0.0,0.0,0.0,0.0,0.0,1.4016,1.3844,0.0,0.0,0.0,0.0,0.0,0.0,0.0,0.0,0.0,0.0,0.0,0.0,0.0,0.0,0.0,0.0,1.1864,0.0,0.0,0.0,0.0,0.0,0.0,0.0,1.5642,0.0,1.6368,1.6761,1.6978,1.6978,1.6978,1.7046,1.7188,1.7243,1.7399,1.765,1.7704,1.7772,1.786,1.7812,1.7738,1.765,1.7541,1.7555,1.765,1.6717,1.6363,1.6077,1.5064,1.4365,1.4124,1.4048,1.4015,1.401,1.3972,1.3983,1.4026,1.4069,1.4053,1.4015,1.4015,1.3988,1.3955,1.3955,1.3901,1.3847,1.3847,1.3754,1.3667,1.3667,1.3635,1.3602,1.3602,1.3602,1.3602,1.3602,1.2757,1.2122,1.1487,0.8744,0.6842,0.6848,0.3881,0.1302,0.0217,0.0,0.0,0.0,0.0,0.0,0.0,0.0,0.0,0.0,0.0,0.0,0.0,0.0,0.0,0.0,0.0,0.0,0.0,0.0,0.0,0.0,0.0,0.0,1.4906,1.4544,0.0,1.4306,1.3749,0.0,1.3376,0.0,1.2489,0.0,0.0,0.0,0.0,0.0,0.0,0.0,0.0,0.0,0.0,1.159,0.0,0.0,0.0,0.0,0.0,0.0,0.0,0.0,0.0,0.0,0.0,1.6686,1.6897,1.6897,1.6951,1.7026,1.7114,1.7168,1.7317,1.7568,1.7623,1.7717,1.786,1.7812,1.7738,1.765,1.7589,1.7595,1.765,1.6994,1.642,1.6077,1.529,1.4557,1.4053,1.3939,1.3868,1.3836,1.3879,1.3896,1.3901,1.3944,1.3928,1.3896,1.3896,1.3868,1.383,1.383,1.3781,1.3722,1.3722,1.3662,1.3602,1.3602,1.3602,1.3602,1.3602,1.3602,1.3602,1.3602,1.2757,1.1911,1.1276,0.9364,0.7881,0.7462,0.4069,0.129,0.0215,0.0,0.0,0.0,0.0,0.0,0.0,0.0,0.0,0.0,0.0,0.0,0.0,0.0,0.0,0.0,0.0,0.0,0.0,0.0,0.0,0.0,0.0,0.0]}]]